| time (UTC) | temp F | wind direction | speed MPH | gust MPH | rain 1hr in | rain 24hr in | rain mn in | humidity % | barometer mb |
| 20260508234003 | 63 | 304 | 4.0 | 6.0 | 0.00 | 0.00 | 0.00 | 43 | 1006.7 |
| 20260508233803 | 64 | 307 | 4.0 | 8.0 | 0.00 | 0.00 | 0.00 | 41 | 1006.7 |
| 20260508233603 | 64 | 307 | 5.0 | 8.0 | 0.00 | 0.00 | 0.00 | 42 | 1006.7 |
| 20260508233403 | 64 | 305 | 5.0 | 8.0 | 0.00 | 0.00 | 0.00 | 42 | 1006.7 |
| 20260508233203 | 64 | 304 | 5.0 | 9.0 | 0.00 | 0.00 | 0.00 | 42 | 1006.8 |
| 20260508233003 | 64 | 306 | 5.0 | 9.0 | 0.00 | 0.00 | 0.00 | 42 | 1006.8 |
| 20260508232803 | 64 | 304 | 5.0 | 9.0 | 0.00 | 0.00 | 0.00 | 42 | 1006.7 |
| 20260508232603 | 64 | 302 | 6.0 | 9.0 | 0.00 | 0.00 | 0.00 | 41 | 1006.7 |
| 20260508232403 | 64 | 303 | 6.0 | 9.0 | 0.00 | 0.00 | 0.00 | 42 | 1006.8 |
| 20260508232224 | 64 | 304 | 6.0 | 8.0 | 0.00 | 0.00 | 0.00 | 43 | 1006.8 |
| 20260508232003 | 64 | 302 | 6.0 | 9.0 | 0.00 | 0.00 | 0.00 | 43 | 1006.8 |
| 20260508231803 | 64 | 303 | 6.0 | 9.0 | 0.00 | 0.00 | 0.00 | 42 | 1006.8 |
| 20260508231603 | 64 | 304 | 5.0 | 9.0 | 0.00 | 0.00 | 0.00 | 40 | 1006.8 |
| 20260508231403 | 65 | 309 | 5.0 | 9.0 | 0.00 | 0.00 | 0.00 | 39 | 1006.8 |
| 20260508231203 | 65 | 309 | 5.0 | 9.0 | 0.00 | 0.00 | 0.00 | 39 | 1006.8 |
| 20260508231003 | 65 | 312 | 4.0 | 8.0 | 0.00 | 0.00 | 0.00 | 33 | 1006.8 |
| 20260508230803 | 65 | 312 | 4.0 | 8.0 | 0.00 | 0.00 | 0.00 | 31 | 1006.7 |
| 20260508230603 | 65 | 312 | 4.0 | 8.0 | 0.00 | 0.00 | 0.00 | 30 | 1006.7 |
| 20260508230424 | 65 | 306 | 4.0 | 7.0 | 0.00 | 0.00 | 0.00 | 30 | 1006.7 |
| 20260508230203 | 65 | 306 | 4.0 | 7.0 | 0.00 | 0.00 | 0.00 | 29 | 1006.7 |
| 20260508230003 | 65 | 308 | 4.0 | 7.0 | 0.00 | 0.00 | 0.00 | 29 | 1006.7 |
| 20260508225803 | 65 | 307 | 5.0 | 7.0 | 0.00 | 0.00 | 0.00 | 28 | 1006.7 |
| 20260508225603 | 65 | 306 | 5.0 | 10.0 | 0.00 | 0.00 | 0.00 | 27 | 1006.8 |
| 20260508225403 | 65 | 305 | 5.0 | 10.0 | 0.00 | 0.00 | 0.00 | 28 | 1006.8 |
| 20260508225203 | 65 | 304 | 5.0 | 10.0 | 0.00 | 0.00 | 0.00 | 29 | 1006.7 |
| 20260508225024 | 66 | 301 | 5.0 | 10.0 | 0.00 | 0.00 | 0.00 | 28 | 1006.7 |
| 20260508224803 | 66 | 299 | 5.0 | 10.0 | 0.00 | 0.00 | 0.00 | 33 | 1006.7 |
| 20260508224603 | 66 | 297 | 5.0 | 9.0 | 0.00 | 0.00 | 0.00 | 32 | 1006.7 |
| 20260508224424 | 66 | 298 | 5.0 | 8.0 | 0.00 | 0.00 | 0.00 | 33 | 1006.7 |
| 20260508224203 | 66 | 299 | 5.0 | 8.0 | 0.00 | 0.00 | 0.00 | 33 | 1006.7 |
| 20260508224003 | 66 | 303 | 5.0 | 8.0 | 0.00 | 0.00 | 0.00 | 33 | 1006.7 |
| 20260508223803 | 66 | 303 | 5.0 | 9.0 | 0.00 | 0.00 | 0.00 | 32 | 1006.7 |
| 20260508223624 | 66 | 304 | 5.0 | 9.0 | 0.00 | 0.00 | 0.00 | 32 | 1006.7 |
| 20260508223403 | 66 | 309 | 4.0 | 9.0 | 0.00 | 0.00 | 0.00 | 33 | 1006.7 |
| 20260508223203 | 66 | 318 | 4.0 | 9.0 | 0.00 | 0.00 | 0.00 | 32 | 1006.7 |
| 20260508223003 | 66 | 323 | 3.0 | 9.0 | 0.00 | 0.00 | 0.00 | 35 | 1006.7 |
| 20260508222803 | 65 | 345 | 2.0 | 8.0 | 0.00 | 0.00 | 0.00 | 32 | 1006.7 |
| 20260508222603 | 65 | 2 | 2.0 | 6.0 | 0.00 | 0.00 | 0.00 | 33 | 1006.7 |
| 20260508222424 | 65 | 353 | 3.0 | 8.0 | 0.00 | 0.00 | 0.00 | 31 | 1006.7 |
| 20260508222203 | 65 | 352 | 3.0 | 8.0 | 0.00 | 0.00 | 0.00 | 31 | 1006.7 |
| 20260508222003 | 64 | 349 | 3.0 | 8.0 | 0.00 | 0.00 | 0.00 | 29 | 1006.7 |
| 20260508221824 | 64 | 345 | 3.0 | 8.0 | 0.00 | 0.00 | 0.00 | 29 | 1006.8 |
| 20260508221603 | 64 | 340 | 3.0 | 8.0 | 0.00 | 0.00 | 0.00 | 29 | 1006.8 |
| 20260508221403 | 65 | 340 | 3.0 | 9.0 | 0.00 | 0.00 | 0.00 | 29 | 1006.8 |
| 20260508221203 | 65 | 335 | 4.0 | 9.0 | 0.00 | 0.00 | 0.00 | 29 | 1006.8 |
| 20260508221003 | 66 | 339 | 4.0 | 9.0 | 0.00 | 0.00 | 0.00 | 27 | 1006.8 |
| 20260508220803 | 66 | 337 | 4.0 | 9.0 | 0.00 | 0.00 | 0.00 | 29 | 1006.8 |
| 20260508220624 | 66 | 332 | 5.0 | 9.0 | 0.00 | 0.00 | 0.00 | 27 | 1006.8 |
| 20260508220403 | 66 | 323 | 5.0 | 10.0 | 0.00 | 0.00 | 0.00 | 31 | 1006.8 |
| 20260508220203 | 67 | 315 | 5.0 | 10.0 | 0.00 | 0.00 | 0.00 | 27 | 1006.8 |
| 20260508220004 | 67 | 305 | 5.0 | 10.0 | 0.00 | 0.00 | 0.00 | 29 | 1006.8 |
| 20260508215803 | 67 | 305 | 5.0 | 10.0 | 0.00 | 0.00 | 0.00 | 29 | 1006.8 |
| 20260508215603 | 67 | 307 | 4.0 | 8.0 | 0.00 | 0.00 | 0.00 | 28 | 1006.8 |
| 20260508215403 | 67 | 315 | 4.0 | 8.0 | 0.00 | 0.00 | 0.00 | 29 | 1006.8 |
| 20260508215224 | 67 | 329 | 4.0 | 8.0 | 0.00 | 0.00 | 0.00 | 27 | 1006.8 |
| 20260508215003 | 66 | 342 | 4.0 | 8.0 | 0.00 | 0.00 | 0.00 | 29 | 1006.9 |
| 20260508214803 | 66 | 341 | 4.0 | 8.0 | 0.00 | 0.00 | 0.00 | 26 | 1006.9 |
| 20260508214603 | 66 | 349 | 4.0 | 8.0 | 0.00 | 0.00 | 0.00 | 28 | 1006.9 |
| 20260508214424 | 66 | 346 | 4.0 | 8.0 | 0.00 | 0.00 | 0.00 | 27 | 1006.9 |
| 20260508214203 | 66 | 340 | 5.0 | 8.0 | 0.00 | 0.00 | 0.00 | 25 | 1006.9 |
| 20260508214003 | 66 | 346 | 5.0 | 9.0 | 0.00 | 0.00 | 0.00 | 26 | 1006.9 |
| 20260508213824 | 66 | 352 | 4.0 | 9.0 | 0.00 | 0.00 | 0.00 | 26 | 1006.9 |
| 20260508213603 | 66 | 347 | 5.0 | 11.0 | 0.00 | 0.00 | 0.00 | 28 | 1006.9 |
| 20260508213403 | 66 | 336 | 6.0 | 11.0 | 0.00 | 0.00 | 0.00 | 28 | 1007.0 |
| 20260508213203 | 67 | 325 | 6.0 | 11.0 | 0.00 | 0.00 | 0.00 | 27 | 1007.0 |
| 20260508213003 | 67 | 313 | 6.0 | 11.0 | 0.00 | 0.00 | 0.00 | 26 | 1007.0 |
| 20260508212824 | 67 | 309 | 6.0 | 11.0 | 0.00 | 0.00 | 0.00 | 28 | 1007.0 |
| 20260508212624 | 67 | 305 | 6.0 | 11.0 | 0.00 | 0.00 | 0.00 | 27 | 1006.9 |
| 20260508212424 | 67 | 310 | 6.0 | 11.0 | 0.00 | 0.00 | 0.00 | 27 | 1007.0 |
| 20260508212203 | 67 | 327 | 5.0 | 11.0 | 0.00 | 0.00 | 0.00 | 27 | 1007.0 |
| 20260508212003 | 67 | 342 | 5.0 | 10.0 | 0.00 | 0.00 | 0.00 | 30 | 1007.0 |
| 20260508211803 | 66 | 357 | 4.0 | 10.0 | 0.00 | 0.00 | 0.00 | 30 | 1007.1 |
| 20260508211603 | 66 | 7 | 4.0 | 10.0 | 0.00 | 0.00 | 0.00 | 29 | 1007.1 |
| 20260508211403 | 66 | 10 | 3.0 | 10.0 | 0.00 | 0.00 | 0.00 | 29 | 1007.1 |
| 20260508211203 | 66 | 10 | 4.0 | 12.0 | 0.00 | 0.00 | 0.00 | 29 | 1007.2 |
| 20260508211024 | 66 | 9 | 4.0 | 12.0 | 0.00 | 0.00 | 0.00 | 27 | 1007.2 |
| 20260508210803 | 66 | 356 | 5.0 | 12.0 | 0.00 | 0.00 | 0.00 | 28 | 1007.2 |
| 20260508210603 | 66 | 358 | 5.0 | 12.0 | 0.00 | 0.00 | 0.00 | 31 | 1007.2 |
| 20260508210403 | 66 | 346 | 5.0 | 12.0 | 0.00 | 0.00 | 0.00 | 27 | 1007.2 |
| 20260508210203 | 66 | 337 | 4.0 | 10.0 | 0.00 | 0.00 | 0.00 | 29 | 1007.2 |
| 20260508210003 | 66 | 330 | 4.0 | 10.0 | 0.00 | 0.00 | 0.00 | 25 | 1007.3 |
| 20260508205803 | 66 | 331 | 4.0 | 8.0 | 0.00 | 0.00 | 0.00 | 31 | 1007.3 |
| 20260508205603 | 66 | 325 | 4.0 | 8.0 | 0.00 | 0.00 | 0.00 | 25 | 1007.3 |
| 20260508205424 | 66 | 335 | 4.0 | 8.0 | 0.00 | 0.00 | 0.00 | 26 | 1007.2 |
| 20260508205224 | 66 | 332 | 5.0 | 8.0 | 0.00 | 0.00 | 0.00 | 27 | 1007.3 |
| 20260508205003 | 66 | 325 | 5.0 | 9.0 | 0.00 | 0.00 | 0.00 | 26 | 1007.3 |
| 20260508204824 | 66 | 320 | 5.0 | 10.0 | 0.00 | 0.00 | 0.00 | 26 | 1007.3 |
| 20260508204603 | 66 | 316 | 5.0 | 10.0 | 0.00 | 0.00 | 0.00 | 27 | 1007.4 |
| 20260508204403 | 66 | 313 | 6.0 | 10.0 | 0.00 | 0.00 | 0.00 | 26 | 1007.4 |
| 20260508204203 | 66 | 310 | 6.0 | 15.0 | 0.00 | 0.00 | 0.00 | 25 | 1007.4 |
| 20260508204003 | 66 | 311 | 6.0 | 15.0 | 0.00 | 0.00 | 0.00 | 28 | 1007.4 |
| 20260508203824 | 65 | 313 | 5.0 | 15.0 | 0.00 | 0.00 | 0.00 | 26 | 1007.5 |
| 20260508203624 | 65 | 313 | 4.0 | 15.0 | 0.00 | 0.00 | 0.00 | 27 | 1007.6 |
| 20260508203403 | 65 | 319 | 3.0 | 15.0 | 0.00 | 0.00 | 0.00 | 28 | 1007.5 |
| 20260508203203 | 64 | 348 | 2.0 | 8.0 | 0.00 | 0.00 | 0.00 | 27 | 1007.5 |
| 20260508203024 | 64 | 345 | 3.0 | 9.0 | 0.00 | 0.00 | 0.00 | 32 | 1007.6 |
| 20260508202803 | 64 | 343 | 3.0 | 9.0 | 0.00 | 0.00 | 0.00 | 30 | 1007.6 |
| 20260508202603 | 64 | 345 | 4.0 | 9.0 | 0.00 | 0.00 | 0.00 | 27 | 1007.6 |
| 20260508202424 | 64 | 345 | 3.0 | 9.0 | 0.00 | 0.00 | 0.00 | 28 | 1007.7 |
| 20260508202203 | 64 | 343 | 3.0 | 9.0 | 0.00 | 0.00 | 0.00 | 28 | 1007.7 |
| 20260508202003 | 64 | 357 | 3.0 | 10.0 | 0.00 | 0.00 | 0.00 | 30 | 1007.6 |
| 20260508201803 | 65 | 347 | 3.0 | 10.0 | 0.00 | 0.00 | 0.00 | 33 | 1007.6 |
| 20260508201603 | 65 | 339 | 4.0 | 10.0 | 0.00 | 0.00 | 0.00 | 31 | 1007.6 |
| 20260508201403 | 66 | 329 | 4.0 | 10.0 | 0.00 | 0.00 | 0.00 | 27 | 1007.7 |
| 20260508201203 | 66 | 318 | 5.0 | 10.0 | 0.00 | 0.00 | 0.00 | 25 | 1007.7 |
| 20260508201003 | 66 | 316 | 5.0 | 8.0 | 0.00 | 0.00 | 0.00 | 30 | 1007.7 |
| 20260508200824 | 66 | 312 | 5.0 | 8.0 | 0.00 | 0.00 | 0.00 | 31 | 1007.7 |
| 20260508200603 | 66 | 311 | 5.0 | 8.0 | 0.00 | 0.00 | 0.00 | 28 | 1007.7 |
| 20260508200403 | 65 | 310 | 5.0 | 8.0 | 0.00 | 0.00 | 0.00 | 32 | 1007.8 |
| 20260508200203 | 65 | 316 | 4.0 | 8.0 | 0.00 | 0.00 | 0.00 | 31 | 1007.9 |
| 20260508200003 | 64 | 312 | 4.0 | 10.0 | 0.00 | 0.00 | 0.00 | 28 | 1007.9 |
| 20260508195803 | 65 | 314 | 4.0 | 10.0 | 0.00 | 0.00 | 0.00 | 26 | 1007.9 |
| 20260508195624 | 65 | 320 | 5.0 | 10.0 | 0.00 | 0.00 | 0.00 | 27 | 1008.0 |
| 20260508195403 | 65 | 337 | 5.0 | 10.0 | 0.00 | 0.00 | 0.00 | 27 | 1007.9 |
| 20260508195203 | 65 | 344 | 5.0 | 10.0 | 0.00 | 0.00 | 0.00 | 26 | 1008.0 |
| 20260508195003 | 65 | 347 | 5.0 | 9.0 | 0.00 | 0.00 | 0.00 | 28 | 1008.1 |
| 20260508194824 | 65 | 351 | 5.0 | 9.0 | 0.00 | 0.00 | 0.00 | 28 | 1008.1 |
| 20260508194603 | 66 | 352 | 5.0 | 10.0 | 0.00 | 0.00 | 0.00 | 32 | 1008.1 |
| 20260508194403 | 66 | 348 | 5.0 | 10.0 | 0.00 | 0.00 | 0.00 | 32 | 1008.1 |
| 20260508194203 | 66 | 348 | 5.0 | 10.0 | 0.00 | 0.00 | 0.00 | 28 | 1008.1 |
| 20260508194003 | 65 | 353 | 5.0 | 10.0 | 0.00 | 0.00 | 0.00 | 29 | 1008.1 |
| 20260508193803 | 65 | 339 | 6.0 | 14.0 | 0.00 | 0.00 | 0.00 | 26 | 1008.2 |
| 20260508193603 | 66 | 335 | 6.0 | 14.0 | 0.00 | 0.00 | 0.00 | 27 | 1008.3 |
| 20260508193403 | 66 | 329 | 7.0 | 14.0 | 0.00 | 0.00 | 0.00 | 26 | 1008.3 |
| 20260508193203 | 66 | 316 | 7.0 | 14.0 | 0.00 | 0.00 | 0.00 | 29 | 1008.5 |
| 20260508193003 | 66 | 310 | 6.0 | 14.0 | 0.00 | 0.00 | 0.00 | 26 | 1008.4 |
| 20260508192803 | 66 | 311 | 5.0 | 11.0 | 0.00 | 0.00 | 0.00 | 29 | 1008.4 |
| 20260508192603 | 66 | 304 | 3.0 | 11.0 | 0.00 | 0.00 | 0.00 | 30 | 1008.4 |
| 20260508192403 | 66 | 295 | 2.0 | 11.0 | 0.00 | 0.00 | 0.00 | 27 | 1008.4 |
| 20260508192203 | 66 | 299 | 1.0 | 11.0 | 0.00 | 0.00 | 0.00 | 27 | 1008.4 |
| 20260508192003 | 65 | 299 | 1.0 | 4.0 | 0.00 | 0.00 | 0.00 | 33 | 1008.5 |
| 20260508191803 | 65 | 301 | 1.0 | 4.0 | 0.00 | 0.00 | 0.00 | 34 | 1008.5 |
| 20260508191603 | 65 | 300 | 2.0 | 5.0 | 0.00 | 0.00 | 0.00 | 32 | 1008.6 |
| 20260508191424 | 64 | 302 | 2.0 | 5.0 | 0.00 | 0.00 | 0.00 | 31 | 1008.6 |
| 20260508191224 | 64 | 301 | 3.0 | 5.0 | 0.00 | 0.00 | 0.00 | 34 | 1008.5 |
| 20260508191003 | 64 | 306 | 3.0 | 5.0 | 0.00 | 0.00 | 0.00 | 32 | 1008.6 |
| 20260508190803 | 64 | 305 | 3.0 | 5.0 | 0.00 | 0.00 | 0.00 | 31 | 1008.6 |
| 20260508190603 | 64 | 305 | 4.0 | 9.0 | 0.00 | 0.00 | 0.00 | 33 | 1008.7 |
| 20260508190403 | 64 | 305 | 4.0 | 9.0 | 0.00 | 0.00 | 0.00 | 33 | 1008.7 |
| 20260508190203 | 64 | 309 | 3.0 | 9.0 | 0.00 | 0.00 | 0.00 | 32 | 1008.7 |
| 20260508190004 | 64 | 315 | 3.0 | 9.0 | 0.00 | 0.00 | 0.00 | 32 | 1008.7 |
| 20260508185803 | 64 | 328 | 3.0 | 9.0 | 0.00 | 0.00 | 0.00 | 30 | 1008.8 |
| 20260508185603 | 64 | 337 | 3.0 | 5.0 | 0.00 | 0.00 | 0.00 | 33 | 1008.9 |
| 20260508185403 | 64 | 336 | 3.0 | 7.0 | 0.00 | 0.00 | 0.00 | 31 | 1008.9 |
| 20260508185203 | 65 | 325 | 3.0 | 8.0 | 0.00 | 0.00 | 0.00 | 29 | 1008.9 |
| 20260508185003 | 65 | 310 | 3.0 | 8.0 | 0.00 | 0.00 | 0.00 | 30 | 1008.9 |
| 20260508184803 | 65 | 304 | 4.0 | 8.0 | 0.00 | 0.00 | 0.00 | 29 | 1008.9 |
| 20260508184603 | 65 | 302 | 4.0 | 8.0 | 0.00 | 0.00 | 0.00 | 31 | 1008.9 |
| 20260508184403 | 65 | 303 | 5.0 | 8.0 | 0.00 | 0.00 | 0.00 | 27 | 1008.9 |
| 20260508184203 | 64 | 305 | 5.0 | 8.0 | 0.00 | 0.00 | 0.00 | 32 | 1008.9 |
| 20260508184003 | 64 | 305 | 5.0 | 10.0 | 0.00 | 0.00 | 0.00 | 30 | 1009.0 |
| 20260508183803 | 64 | 305 | 5.0 | 10.0 | 0.00 | 0.00 | 0.00 | 33 | 1009.0 |
| 20260508183603 | 64 | 305 | 5.0 | 10.0 | 0.00 | 0.00 | 0.00 | 34 | 1009.0 |
| 20260508183403 | 63 | 308 | 4.0 | 10.0 | 0.00 | 0.00 | 0.00 | 32 | 1009.0 |
| 20260508183203 | 63 | 308 | 3.0 | 10.0 | 0.00 | 0.00 | 0.00 | 34 | 1009.0 |
| 20260508183003 | 63 | 323 | 2.0 | 8.0 | 0.00 | 0.00 | 0.00 | 35 | 1009.1 |
| 20260508182803 | 63 | 343 | 2.0 | 8.0 | 0.00 | 0.00 | 0.00 | 38 | 1009.1 |
| 20260508182603 | 63 | 350 | 2.0 | 8.0 | 0.00 | 0.00 | 0.00 | 38 | 1009.1 |
| 20260508182403 | 63 | 344 | 3.0 | 8.0 | 0.00 | 0.00 | 0.00 | 34 | 1009.2 |
| 20260508182203 | 63 | 349 | 3.0 | 8.0 | 0.00 | 0.00 | 0.00 | 35 | 1009.2 |
| 20260508182003 | 63 | 342 | 4.0 | 9.0 | 0.00 | 0.00 | 0.00 | 36 | 1009.3 |
| 20260508181803 | 63 | 331 | 4.0 | 9.0 | 0.00 | 0.00 | 0.00 | 36 | 1009.3 |
| 20260508181603 | 63 | 325 | 5.0 | 10.0 | 0.00 | 0.00 | 0.00 | 36 | 1009.4 |
| 20260508181403 | 63 | 318 | 6.0 | 11.0 | 0.00 | 0.00 | 0.00 | 38 | 1009.4 |
| 20260508181224 | 63 | 311 | 7.0 | 13.0 | 0.00 | 0.00 | 0.00 | 34 | 1009.4 |
| 20260508181024 | 63 | 304 | 6.0 | 13.0 | 0.00 | 0.00 | 0.00 | 33 | 1009.4 |
| 20260508180824 | 63 | 310 | 6.0 | 13.0 | 0.00 | 0.00 | 0.00 | 36 | 1009.5 |
| 20260508180603 | 63 | 319 | 5.0 | 13.0 | 0.00 | 0.00 | 0.00 | 40 | 1009.5 |
| 20260508180424 | 62 | 324 | 4.0 | 13.0 | 0.00 | 0.00 | 0.00 | 38 | 1009.5 |
| 20260508180203 | 62 | 335 | 3.0 | 7.0 | 0.00 | 0.00 | 0.00 | 37 | 1009.5 |
| 20260508180003 | 62 | 345 | 2.0 | 6.0 | 0.00 | 0.00 | 0.00 | 36 | 1009.5 |
| 20260508175803 | 63 | 328 | 2.0 | 6.0 | 0.00 | 0.00 | 0.00 | 37 | 1009.6 |
| 20260508175603 | 63 | 313 | 3.0 | 8.0 | 0.00 | 0.00 | 0.00 | 35 | 1009.7 |
| 20260508175403 | 63 | 312 | 3.0 | 8.0 | 0.00 | 0.00 | 0.00 | 35 | 1009.7 |
| 20260508175203 | 63 | 314 | 3.0 | 8.0 | 0.00 | 0.00 | 0.00 | 34 | 1009.7 |
| 20260508175003 | 63 | 313 | 3.0 | 8.0 | 0.00 | 0.00 | 0.00 | 34 | 1009.7 |
| 20260508174803 | 63 | 304 | 4.0 | 8.0 | 0.00 | 0.00 | 0.00 | 34 | 1009.8 |
| 20260508174603 | 63 | 312 | 4.0 | 8.0 | 0.00 | 0.00 | 0.00 | 35 | 1009.9 |
| 20260508174424 | 62 | 321 | 3.0 | 8.0 | 0.00 | 0.00 | 0.00 | 35 | 1009.9 |
| 20260508174224 | 62 | 330 | 3.0 | 8.0 | 0.00 | 0.00 | 0.00 | 37 | 1009.9 |
| 20260508174003 | 62 | 351 | 3.0 | 8.0 | 0.00 | 0.00 | 0.00 | 34 | 1010.0 |
| 20260508173803 | 62 | 359 | 3.0 | 11.0 | 0.00 | 0.00 | 0.00 | 38 | 1010.0 |
| 20260508173603 | 62 | 358 | 3.0 | 11.0 | 0.00 | 0.00 | 0.00 | 40 | 1010.0 |
| 20260508173403 | 62 | 353 | 4.0 | 11.0 | 0.00 | 0.00 | 0.00 | 39 | 1010.0 |
| 20260508173203 | 62 | 335 | 5.0 | 11.0 | 0.00 | 0.00 | 0.00 | 36 | 1010.1 |
| 20260508173003 | 62 | 320 | 5.0 | 11.0 | 0.00 | 0.00 | 0.00 | 38 | 1010.1 |
| 20260508172824 | 62 | 316 | 5.0 | 10.0 | 0.00 | 0.00 | 0.00 | 36 | 1010.1 |
| 20260508172603 | 62 | 307 | 6.0 | 11.0 | 0.00 | 0.00 | 0.00 | 36 | 1010.1 |
| 20260508172403 | 62 | 300 | 6.0 | 12.0 | 0.00 | 0.00 | 0.00 | 36 | 1010.0 |
| 20260508172203 | 62 | 301 | 5.0 | 12.0 | 0.00 | 0.00 | 0.00 | 35 | 1010.1 |
| 20260508172003 | 62 | 306 | 5.0 | 12.0 | 0.00 | 0.00 | 0.00 | 34 | 1010.1 |
| 20260508171824 | 62 | 312 | 6.0 | 12.0 | 0.00 | 0.00 | 0.00 | 36 | 1010.1 |
| 20260508171603 | 61 | 323 | 4.0 | 12.0 | 0.00 | 0.00 | 0.00 | 35 | 1010.1 |
| 20260508171403 | 61 | 332 | 4.0 | 10.0 | 0.00 | 0.00 | 0.00 | 33 | 1010.1 |
| 20260508171203 | 61 | 340 | 4.0 | 10.0 | 0.00 | 0.00 | 0.00 | 33 | 1010.1 |
| 20260508171003 | 61 | 339 | 4.0 | 10.0 | 0.00 | 0.00 | 0.00 | 36 | 1010.3 |
| 20260508170803 | 61 | 335 | 4.0 | 11.0 | 0.00 | 0.00 | 0.00 | 35 | 1010.2 |
| 20260508170603 | 61 | 327 | 4.0 | 11.0 | 0.00 | 0.00 | 0.00 | 35 | 1010.3 |
| 20260508170403 | 61 | 316 | 4.0 | 11.0 | 0.00 | 0.00 | 0.00 | 37 | 1010.2 |
| 20260508170203 | 61 | 309 | 5.0 | 11.0 | 0.00 | 0.00 | 0.00 | 35 | 1010.3 |
| 20260508170003 | 61 | 303 | 4.0 | 11.0 | 0.00 | 0.00 | 0.00 | 36 | 1010.3 |
| 20260508165803 | 62 | 300 | 4.0 | 9.0 | 0.00 | 0.00 | 0.00 | 38 | 1010.3 |
| 20260508165603 | 61 | 301 | 3.0 | 9.0 | 0.00 | 0.00 | 0.00 | 39 | 1010.4 |
| 20260508165403 | 61 | 302 | 3.0 | 8.0 | 0.00 | 0.00 | 0.00 | 41 | 1010.5 |
| 20260508165203 | 60 | 304 | 3.0 | 11.0 | 0.00 | 0.00 | 0.00 | 41 | 1010.5 |
| 20260508165004 | 60 | 307 | 3.0 | 11.0 | 0.00 | 0.00 | 0.00 | 39 | 1010.6 |
| 20260508164803 | 60 | 312 | 4.0 | 11.0 | 0.00 | 0.00 | 0.00 | 38 | 1010.6 |
| 20260508164603 | 60 | 322 | 4.0 | 11.0 | 0.00 | 0.00 | 0.00 | 39 | 1010.7 |
| 20260508164403 | 60 | 335 | 4.0 | 11.0 | 0.00 | 0.00 | 0.00 | 39 | 1010.8 |
| 20260508164203 | 60 | 352 | 3.0 | 9.0 | 0.00 | 0.00 | 0.00 | 40 | 1010.8 |
| 20260508164003 | 60 | 12 | 3.0 | 7.0 | 0.00 | 0.00 | 0.00 | 43 | 1010.8 |
| 20260508163803 | 60 | 357 | 3.0 | 8.0 | 0.00 | 0.00 | 0.00 | 40 | 1010.8 |
| 20260508163603 | 60 | 346 | 3.0 | 8.0 | 0.00 | 0.00 | 0.00 | 41 | 1010.8 |
| 20260508163403 | 60 | 324 | 4.0 | 9.0 | 0.00 | 0.00 | 0.00 | 44 | 1010.8 |
| 20260508163203 | 60 | 325 | 4.0 | 9.0 | 0.00 | 0.00 | 0.00 | 42 | 1010.8 |
| 20260508163003 | 60 | 331 | 4.0 | 9.0 | 0.00 | 0.00 | 0.00 | 41 | 1010.8 |
| 20260508162824 | 60 | 341 | 4.0 | 9.0 | 0.00 | 0.00 | 0.00 | 42 | 1010.8 |
| 20260508162603 | 60 | 340 | 4.0 | 9.0 | 0.00 | 0.00 | 0.00 | 41 | 1010.8 |
| 20260508162403 | 59 | 354 | 3.0 | 9.0 | 0.00 | 0.00 | 0.00 | 45 | 1010.9 |
| 20260508162203 | 59 | 353 | 3.0 | 9.0 | 0.00 | 0.00 | 0.00 | 41 | 1010.9 |
| 20260508162003 | 59 | 342 | 3.0 | 9.0 | 0.00 | 0.00 | 0.00 | 41 | 1010.9 |
| 20260508161803 | 59 | 331 | 3.0 | 9.0 | 0.00 | 0.00 | 0.00 | 39 | 1010.9 |
| 20260508161603 | 59 | 331 | 3.0 | 7.0 | 0.00 | 0.00 | 0.00 | 40 | 1010.8 |
| 20260508161403 | 59 | 339 | 3.0 | 7.0 | 0.00 | 0.00 | 0.00 | 39 | 1010.8 |
| 20260508161203 | 59 | 341 | 3.0 | 7.0 | 0.00 | 0.00 | 0.00 | 41 | 1010.8 |
| 20260508161003 | 59 | 343 | 2.0 | 7.0 | 0.00 | 0.00 | 0.00 | 45 | 1010.9 |
| 20260508160803 | 58 | 335 | 2.0 | 6.0 | 0.00 | 0.00 | 0.00 | 45 | 1010.9 |
| 20260508160603 | 58 | 312 | 2.0 | 7.0 | 0.00 | 0.00 | 0.00 | 42 | 1010.9 |
| 20260508160403 | 58 | 306 | 3.0 | 7.0 | 0.00 | 0.00 | 0.00 | 44 | 1010.9 |
| 20260508160203 | 58 | 303 | 3.0 | 7.0 | 0.00 | 0.00 | 0.00 | 43 | 1010.9 |
| 20260508160003 | 58 | 303 | 3.0 | 7.0 | 0.00 | 0.00 | 0.00 | 43 | 1010.9 |
| 20260508155803 | 58 | 307 | 3.0 | 7.0 | 0.00 | 0.00 | 0.00 | 44 | 1010.9 |
| 20260508155603 | 58 | 310 | 2.0 | 6.0 | 0.00 | 0.00 | 0.00 | 47 | 1010.9 |
| 20260508155403 | 58 | 312 | 2.0 | 6.0 | 0.00 | 0.00 | 0.00 | 43 | 1010.9 |
| 20260508155203 | 58 | 308 | 2.0 | 6.0 | 0.00 | 0.00 | 0.00 | 47 | 1010.9 |
| 20260508155024 | 58 | 47 | 2.0 | 6.0 | 0.00 | 0.00 | 0.00 | 44 | 1010.9 |
| 20260508154803 | 57 | 136 | 1.0 | 5.0 | 0.00 | 0.00 | 0.00 | 46 | 1010.8 |
| 20260508154603 | 57 | 353 | 2.0 | 6.0 | 0.00 | 0.00 | 0.00 | 43 | 1010.9 |
| 20260508154403 | 57 | 336 | 2.0 | 6.0 | 0.00 | 0.00 | 0.00 | 42 | 1010.9 |
| 20260508154203 | 57 | 336 | 2.0 | 6.0 | 0.00 | 0.00 | 0.00 | 44 | 1010.8 |
| 20260508154003 | 57 | 330 | 2.0 | 6.0 | 0.00 | 0.00 | 0.00 | 44 | 1010.9 |
| 20260508153803 | 57 | 328 | 2.0 | 6.0 | 0.00 | 0.00 | 0.00 | 45 | 1010.9 |
| 20260508153603 | 57 | 327 | 1.0 | 6.0 | 0.00 | 0.00 | 0.00 | 48 | 1010.9 |
| 20260508153403 | 57 | 309 | 1.0 | 4.0 | 0.00 | 0.00 | 0.00 | 49 | 1011.0 |
| 20260508153203 | 57 | 289 | 1.0 | 4.0 | 0.00 | 0.00 | 0.00 | 48 | 1011.0 |
| 20260508153003 | 57 | 284 | 1.0 | 4.0 | 0.00 | 0.00 | 0.00 | 50 | 1011.0 |
| 20260508152803 | 57 | 279 | 1.0 | 4.0 | 0.00 | 0.00 | 0.00 | 48 | 1011.0 |
| 20260508152603 | 57 | 270 | 1.0 | 4.0 | 0.00 | 0.00 | 0.00 | 48 | 1011.0 |
| 20260508152403 | 57 | 271 | 1.0 | 4.0 | 0.00 | 0.00 | 0.00 | 51 | 1011.0 |
| 20260508152203 | 57 | 278 | 1.0 | 4.0 | 0.00 | 0.00 | 0.00 | 51 | 1011.1 |
| 20260508152003 | 57 | 275 | 1.0 | 4.0 | 0.00 | 0.00 | 0.00 | 52 | 1011.1 |
| 20260508151824 | 56 | 271 | 1.0 | 4.0 | 0.00 | 0.00 | 0.00 | 53 | 1011.1 |
| 20260508151603 | 56 | 223 | 1.0 | 4.0 | 0.00 | 0.00 | 0.00 | 53 | 1011.1 |
| 20260508151403 | 56 | 176 | 1.0 | 4.0 | 0.00 | 0.00 | 0.00 | 55 | 1011.0 |
| 20260508151203 | 56 | 164 | 1.0 | 6.0 | 0.00 | 0.00 | 0.00 | 53 | 1011.0 |
| 20260508151003 | 55 | 169 | 1.0 | 6.0 | 0.00 | 0.00 | 0.00 | 54 | 1011.0 |
| 20260508150824 | 55 | 170 | 1.0 | 6.0 | 0.00 | 0.00 | 0.00 | 55 | 1011.1 |
| 20260508150624 | 55 | 177 | 1.0 | 6.0 | 0.00 | 0.00 | 0.00 | 54 | 1011.0 |
| 20260508150403 | 55 | 183 | 1.0 | 6.0 | 0.00 | 0.00 | 0.00 | 55 | 1011.0 |
| 20260508150203 | 55 | 196 | 1.0 | 5.0 | 0.00 | 0.00 | 0.00 | 56 | 1011.0 |
| 20260508150004 | 55 | 195 | 1.0 | 3.0 | 0.00 | 0.00 | 0.00 | 55 | 1011.1 |
| 20260508145803 | 55 | 191 | 1.0 | 4.0 | 0.00 | 0.00 | 0.00 | 55 | 1011.2 |
| 20260508145624 | 55 | 189 | 1.0 | 4.0 | 0.00 | 0.00 | 0.00 | 55 | 1011.2 |
| 20260508145403 | 55 | 185 | 0.0 | 4.0 | 0.00 | 0.00 | 0.00 | 55 | 1011.2 |
| 20260508145203 | 55 | 181 | 0.0 | 4.0 | 0.00 | 0.00 | 0.00 | 57 | 1011.3 |
| 20260508145003 | 54 | 184 | 0.0 | 4.0 | 0.00 | 0.00 | 0.00 | 56 | 1011.3 |
| 20260508144824 | 54 | 187 | 0.0 | 4.0 | 0.00 | 0.00 | 0.00 | 58 | 1011.4 |
| 20260508144603 | 54 | 193 | 1.0 | 3.0 | 0.00 | 0.00 | 0.00 | 58 | 1011.4 |
| 20260508144403 | 54 | 197 | 1.0 | 3.0 | 0.00 | 0.00 | 0.00 | 59 | 1011.3 |
| 20260508144203 | 54 | 227 | 1.0 | 3.0 | 0.00 | 0.00 | 0.00 | 59 | 1011.4 |
| 20260508144003 | 53 | 243 | 1.0 | 3.0 | 0.00 | 0.00 | 0.00 | 59 | 1011.4 |
| 20260508143824 | 53 | 278 | 1.0 | 4.0 | 0.00 | 0.00 | 0.00 | 59 | 1011.4 |
| 20260508143603 | 53 | 298 | 1.0 | 4.0 | 0.00 | 0.00 | 0.00 | 60 | 1011.5 |
| 20260508143403 | 53 | 302 | 1.0 | 4.0 | 0.00 | 0.00 | 0.00 | 60 | 1011.5 |
| 20260508143203 | 53 | 304 | 1.0 | 4.0 | 0.00 | 0.00 | 0.00 | 61 | 1011.5 |
| 20260508143003 | 53 | 305 | 1.0 | 4.0 | 0.00 | 0.00 | 0.00 | 61 | 1011.5 |
| 20260508142803 | 53 | 307 | 1.0 | 4.0 | 0.00 | 0.00 | 0.00 | 60 | 1011.5 |
| 20260508142603 | 52 | 307 | 0.0 | 3.0 | 0.00 | 0.00 | 0.00 | 61 | 1011.6 |
| 20260508142403 | 52 | 308 | 0.0 | 2.0 | 0.00 | 0.00 | 0.00 | 61 | 1011.7 |
| 20260508142224 | 52 | 0 | 0.0 | 0.0 | 0.00 | 0.00 | 0.00 | 61 | 1011.6 |
| 20260508142003 | 52 | 0 | 0.0 | 0.0 | 0.00 | 0.00 | 0.00 | 61 | 1011.6 |
| 20260508141803 | 52 | 0 | 0.0 | 0.0 | 0.00 | 0.00 | 0.00 | 61 | 1011.6 |
| 20260508141624 | 52 | 0 | 0.0 | 0.0 | 0.00 | 0.00 | 0.00 | 61 | 1011.6 |
| 20260508141403 | 51 | 0 | 0.0 | 1.0 | 0.00 | 0.00 | 0.00 | 62 | 1011.7 |
| 20260508141203 | 51 | 0 | 0.0 | 1.0 | 0.00 | 0.00 | 0.00 | 63 | 1011.7 |
| 20260508141024 | 51 | 0 | 0.0 | 1.0 | 0.00 | 0.00 | 0.00 | 64 | 1011.7 |
| 20260508140803 | 51 | 0 | 0.0 | 1.0 | 0.00 | 0.00 | 0.00 | 63 | 1011.8 |
| 20260508140603 | 51 | 0 | 0.0 | 1.0 | 0.00 | 0.00 | 0.00 | 63 | 1011.8 |
| 20260508140403 | 50 | 308 | 0.0 | 1.0 | 0.00 | 0.00 | 0.00 | 63 | 1011.7 |
| 20260508140203 | 50 | 310 | 1.0 | 3.0 | 0.00 | 0.00 | 0.00 | 63 | 1011.6 |
| 20260508140003 | 50 | 312 | 1.0 | 3.0 | 0.00 | 0.00 | 0.00 | 63 | 1011.7 |
| 20260508135803 | 50 | 312 | 1.0 | 3.0 | 0.00 | 0.00 | 0.00 | 63 | 1011.7 |
| 20260508135624 | 50 | 312 | 1.0 | 3.0 | 0.00 | 0.00 | 0.00 | 63 | 1011.6 |
| 20260508135403 | 50 | 312 | 1.0 | 3.0 | 0.00 | 0.00 | 0.00 | 63 | 1011.7 |
| 20260508135203 | 50 | 313 | 1.0 | 2.0 | 0.00 | 0.00 | 0.00 | 64 | 1011.7 |
| 20260508135003 | 50 | 311 | 1.0 | 3.0 | 0.00 | 0.00 | 0.00 | 64 | 1011.6 |
| 20260508134803 | 50 | 311 | 1.0 | 3.0 | 0.00 | 0.00 | 0.00 | 64 | 1011.6 |
| 20260508134603 | 50 | 311 | 0.0 | 3.0 | 0.00 | 0.00 | 0.00 | 65 | 1011.6 |
| 20260508134424 | 49 | 311 | 0.0 | 3.0 | 0.00 | 0.00 | 0.00 | 65 | 1011.7 |
| 20260508134203 | 49 | 312 | 0.0 | 3.0 | 0.00 | 0.00 | 0.00 | 65 | 1011.7 |
| 20260508134024 | 49 | 316 | 0.0 | 2.0 | 0.00 | 0.00 | 0.00 | 66 | 1011.7 |
| 20260508133803 | 49 | 0 | 0.0 | 0.0 | 0.00 | 0.00 | 0.00 | 66 | 1011.7 |
| 20260508133603 | 49 | 318 | 0.0 | 1.0 | 0.00 | 0.00 | 0.00 | 66 | 1011.8 |
| 20260508133403 | 49 | 318 | 0.0 | 1.0 | 0.00 | 0.00 | 0.00 | 67 | 1011.7 |
| 20260508133203 | 49 | 319 | 0.0 | 2.0 | 0.00 | 0.00 | 0.00 | 67 | 1011.7 |
| 20260508133003 | 49 | 319 | 0.0 | 2.0 | 0.00 | 0.00 | 0.00 | 67 | 1011.7 |
| 20260508132803 | 49 | 319 | 0.0 | 2.0 | 0.00 | 0.00 | 0.00 | 67 | 1011.7 |
| 20260508132603 | 48 | 319 | 0.0 | 2.0 | 0.00 | 0.00 | 0.00 | 67 | 1011.7 |
| 20260508132403 | 48 | 320 | 1.0 | 3.0 | 0.00 | 0.00 | 0.00 | 68 | 1011.8 |
| 20260508132224 | 48 | 320 | 0.0 | 3.0 | 0.00 | 0.00 | 0.00 | 68 | 1011.8 |
| 20260508132003 | 48 | 320 | 1.0 | 3.0 | 0.00 | 0.00 | 0.00 | 68 | 1011.9 |
| 20260508131803 | 48 | 320 | 1.0 | 3.0 | 0.00 | 0.00 | 0.00 | 68 | 1011.9 |
| 20260508131624 | 48 | 316 | 1.0 | 4.0 | 0.00 | 0.00 | 0.00 | 68 | 1011.8 |
| 20260508131403 | 48 | 314 | 1.0 | 4.0 | 0.00 | 0.00 | 0.00 | 68 | 1011.8 |
| 20260508131203 | 48 | 310 | 1.0 | 4.0 | 0.00 | 0.00 | 0.00 | 68 | 1011.8 |
| 20260508131003 | 48 | 308 | 1.0 | 4.0 | 0.00 | 0.00 | 0.00 | 68 | 1011.8 |
| 20260508130824 | 48 | 308 | 1.0 | 4.0 | 0.00 | 0.00 | 0.00 | 69 | 1011.8 |
| 20260508130603 | 47 | 325 | 1.0 | 4.0 | 0.00 | 0.00 | 0.00 | 69 | 1011.8 |
| 20260508130403 | 47 | 336 | 1.0 | 4.0 | 0.00 | 0.00 | 0.00 | 69 | 1011.9 |
| 20260508130203 | 47 | 345 | 1.0 | 4.0 | 0.00 | 0.00 | 0.00 | 70 | 1011.9 |
| 20260508130003 | 47 | 357 | 1.0 | 3.0 | 0.00 | 0.00 | 0.00 | 71 | 1011.9 |
| 20260508125803 | 47 | 349 | 1.0 | 4.0 | 0.00 | 0.00 | 0.00 | 71 | 1011.9 |
| 20260508125603 | 47 | 333 | 1.0 | 5.0 | 0.00 | 0.00 | 0.00 | 71 | 1011.9 |
| 20260508125403 | 47 | 324 | 1.0 | 5.0 | 0.00 | 0.00 | 0.00 | 71 | 1012.0 |
| 20260508125203 | 47 | 321 | 2.0 | 5.0 | 0.00 | 0.00 | 0.00 | 72 | 1012.0 |
| 20260508125003 | 47 | 326 | 2.0 | 6.0 | 0.00 | 0.00 | 0.00 | 71 | 1012.1 |
| 20260508124824 | 47 | 325 | 2.0 | 6.0 | 0.00 | 0.00 | 0.00 | 73 | 1012.0 |
| 20260508124624 | 46 | 320 | 2.0 | 6.0 | 0.00 | 0.00 | 0.00 | 73 | 1012.1 |
| 20260508124403 | 46 | 312 | 2.0 | 6.0 | 0.00 | 0.00 | 0.00 | 74 | 1012.1 |
| 20260508124203 | 46 | 318 | 2.0 | 6.0 | 0.00 | 0.00 | 0.00 | 74 | 1012.0 |
| 20260508124024 | 46 | 310 | 1.0 | 3.0 | 0.00 | 0.00 | 0.00 | 74 | 1012.0 |
| 20260508123803 | 46 | 310 | 1.0 | 3.0 | 0.00 | 0.00 | 0.00 | 74 | 1011.9 |
| 20260508123603 | 46 | 314 | 1.0 | 3.0 | 0.00 | 0.00 | 0.00 | 74 | 1011.9 |
| 20260508123424 | 45 | 348 | 0.0 | 3.0 | 0.00 | 0.00 | 0.00 | 74 | 1011.9 |
| 20260508123203 | 45 | 0 | 0.0 | 0.0 | 0.00 | 0.00 | 0.00 | 74 | 1011.9 |
| 20260508123003 | 45 | 0 | 0.0 | 0.0 | 0.00 | 0.00 | 0.00 | 73 | 1011.8 |
| 20260508122803 | 45 | 0 | 0.0 | 0.0 | 0.00 | 0.00 | 0.00 | 74 | 1011.9 |
| 20260508122603 | 45 | 0 | 0.0 | 0.0 | 0.00 | 0.00 | 0.00 | 74 | 1011.9 |
| 20260508122403 | 44 | 0 | 0.0 | 0.0 | 0.00 | 0.00 | 0.00 | 74 | 1011.9 |
| 20260508122203 | 44 | 0 | 0.0 | 0.0 | 0.00 | 0.00 | 0.00 | 74 | 1011.9 |
| 20260508122024 | 44 | 0 | 0.0 | 0.0 | 0.00 | 0.00 | 0.00 | 74 | 1011.9 |
| 20260508121803 | 44 | 0 | 0.0 | 0.0 | 0.00 | 0.00 | 0.00 | 74 | 1011.8 |
| 20260508121603 | 44 | 0 | 0.0 | 0.0 | 0.00 | 0.00 | 0.00 | 75 | 1011.8 |
| 20260508121424 | 44 | 0 | 0.0 | 0.0 | 0.00 | 0.00 | 0.00 | 75 | 1011.8 |
| 20260508121224 | 44 | 0 | 0.0 | 0.0 | 0.00 | 0.00 | 0.00 | 75 | 1011.8 |
| 20260508121003 | 44 | 0 | 0.0 | 0.0 | 0.00 | 0.00 | 0.00 | 76 | 1011.9 |
| 20260508120803 | 43 | 0 | 0.0 | 0.0 | 0.00 | 0.00 | 0.00 | 76 | 1011.8 |
| 20260508120624 | 43 | 0 | 0.0 | 0.0 | 0.00 | 0.00 | 0.00 | 76 | 1011.8 |
| 20260508120403 | 43 | 0 | 0.0 | 0.0 | 0.00 | 0.00 | 0.00 | 76 | 1011.8 |
| 20260508120203 | 43 | 0 | 0.0 | 0.0 | 0.00 | 0.00 | 0.00 | 77 | 1011.7 |
| 20260508120003 | 43 | 0 | 0.0 | 0.0 | 0.00 | 0.00 | 0.00 | 77 | 1011.7 |
| 20260508115803 | 42 | 0 | 0.0 | 0.0 | 0.00 | 0.00 | 0.00 | 78 | 1011.7 |
| 20260508115603 | 42 | 0 | 0.0 | 0.0 | 0.00 | 0.00 | 0.00 | 78 | 1011.7 |
| 20260508115424 | 42 | 0 | 0.0 | 0.0 | 0.00 | 0.00 | 0.00 | 77 | 1011.7 |
| 20260508115203 | 42 | 0 | 0.0 | 0.0 | 0.00 | 0.00 | 0.00 | 77 | 1011.7 |
| 20260508115003 | 41 | 0 | 0.0 | 0.0 | 0.00 | 0.00 | 0.00 | 77 | 1011.7 |
| 20260508114803 | 41 | 0 | 0.0 | 0.0 | 0.00 | 0.00 | 0.00 | 77 | 1011.7 |
| 20260508114603 | 41 | 0 | 0.0 | 0.0 | 0.00 | 0.00 | 0.00 | 78 | 1011.5 |
| 20260508114403 | 41 | 0 | 0.0 | 0.0 | 0.00 | 0.00 | 0.00 | 78 | 1011.5 |
| 20260508114224 | 40 | 0 | 0.0 | 0.0 | 0.00 | 0.00 | 0.00 | 78 | 1011.5 |
| 20260508114003 | 40 | 0 | 0.0 | 0.0 | 0.00 | 0.00 | 0.00 | 77 | 1011.4 |
| 20260508113803 | 40 | 0 | 0.0 | 0.0 | 0.00 | 0.00 | 0.00 | 76 | 1011.4 |
| 20260508113603 | 40 | 0 | 0.0 | 0.0 | 0.00 | 0.00 | 0.00 | 76 | 1011.4 |
| 20260508113403 | 39 | 0 | 0.0 | 0.0 | 0.00 | 0.00 | 0.00 | 76 | 1011.4 |
| 20260508113203 | 39 | 0 | 0.0 | 0.0 | 0.00 | 0.00 | 0.00 | 76 | 1011.3 |
| 20260508113004 | 39 | 0 | 0.0 | 0.0 | 0.00 | 0.00 | 0.00 | 76 | 1011.3 |
| 20260508112803 | 39 | 0 | 0.0 | 0.0 | 0.00 | 0.00 | 0.00 | 75 | 1011.3 |
| 20260508112624 | 38 | 0 | 0.0 | 0.0 | 0.00 | 0.00 | 0.00 | 74 | 1011.2 |
| 20260508112403 | 38 | 0 | 0.0 | 0.0 | 0.00 | 0.00 | 0.00 | 73 | 1011.2 |
| 20260508112203 | 38 | 0 | 0.0 | 0.0 | 0.00 | 0.00 | 0.00 | 73 | 1011.2 |
| 20260508112003 | 38 | 0 | 0.0 | 0.0 | 0.00 | 0.00 | 0.00 | 73 | 1011.2 |
| 20260508111803 | 38 | 0 | 0.0 | 0.0 | 0.00 | 0.00 | 0.00 | 73 | 1011.3 |
| 20260508111603 | 38 | 0 | 0.0 | 0.0 | 0.00 | 0.00 | 0.00 | 73 | 1011.2 |
| 20260508111403 | 38 | 0 | 0.0 | 0.0 | 0.00 | 0.00 | 0.00 | 73 | 1011.1 |
| 20260508111203 | 38 | 0 | 0.0 | 0.0 | 0.00 | 0.00 | 0.00 | 73 | 1011.2 |
| 20260508111003 | 38 | 0 | 0.0 | 0.0 | 0.00 | 0.00 | 0.00 | 73 | 1011.1 |
| 20260508110803 | 37 | 0 | 0.0 | 0.0 | 0.00 | 0.00 | 0.00 | 72 | 1011.1 |
| 20260508110603 | 37 | 0 | 0.0 | 0.0 | 0.00 | 0.00 | 0.00 | 72 | 1011.1 |
| 20260508110403 | 37 | 0 | 0.0 | 0.0 | 0.00 | 0.00 | 0.00 | 72 | 1011.2 |
| 20260508110203 | 37 | 0 | 0.0 | 0.0 | 0.00 | 0.00 | 0.00 | 72 | 1011.1 |
| 20260508110003 | 37 | 0 | 0.0 | 0.0 | 0.00 | 0.00 | 0.00 | 72 | 1011.1 |
| 20260508105803 | 37 | 0 | 0.0 | 0.0 | 0.00 | 0.00 | 0.00 | 72 | 1011.1 |
| 20260508105603 | 37 | 0 | 0.0 | 0.0 | 0.00 | 0.00 | 0.00 | 72 | 1011.1 |
| 20260508105403 | 37 | 0 | 0.0 | 0.0 | 0.00 | 0.00 | 0.00 | 72 | 1011.2 |
| 20260508105203 | 37 | 0 | 0.0 | 0.0 | 0.00 | 0.00 | 0.00 | 72 | 1011.1 |
| 20260508105003 | 37 | 0 | 0.0 | 0.0 | 0.00 | 0.00 | 0.00 | 72 | 1011.1 |
| 20260508104803 | 37 | 0 | 0.0 | 0.0 | 0.00 | 0.00 | 0.00 | 72 | 1011.1 |
| 20260508104603 | 37 | 0 | 0.0 | 0.0 | 0.00 | 0.00 | 0.00 | 72 | 1011.1 |
| 20260508104403 | 37 | 0 | 0.0 | 0.0 | 0.00 | 0.00 | 0.00 | 72 | 1011.1 |
| 20260508104224 | 37 | 0 | 0.0 | 0.0 | 0.00 | 0.00 | 0.00 | 71 | 1011.1 |
| 20260508104003 | 37 | 0 | 0.0 | 0.0 | 0.00 | 0.00 | 0.00 | 71 | 1011.1 |
| 20260508103803 | 37 | 0 | 0.0 | 0.0 | 0.00 | 0.00 | 0.00 | 71 | 1011.0 |
| 20260508103603 | 37 | 0 | 0.0 | 0.0 | 0.00 | 0.00 | 0.00 | 71 | 1011.1 |
| 20260508103403 | 37 | 0 | 0.0 | 0.0 | 0.00 | 0.00 | 0.00 | 71 | 1011.1 |
| 20260508103203 | 37 | 0 | 0.0 | 0.0 | 0.00 | 0.00 | 0.00 | 71 | 1011.1 |
| 20260508103024 | 37 | 0 | 0.0 | 0.0 | 0.00 | 0.00 | 0.00 | 71 | 1011.1 |
| 20260508102803 | 37 | 0 | 0.0 | 0.0 | 0.00 | 0.00 | 0.00 | 71 | 1011.2 |
| 20260508102624 | 37 | 0 | 0.0 | 0.0 | 0.00 | 0.00 | 0.00 | 71 | 1011.1 |
| 20260508102403 | 37 | 0 | 0.0 | 0.0 | 0.00 | 0.00 | 0.00 | 72 | 1011.0 |
| 20260508102203 | 37 | 0 | 0.0 | 0.0 | 0.00 | 0.00 | 0.00 | 72 | 1011.0 |
| 20260508102003 | 37 | 0 | 0.0 | 0.0 | 0.00 | 0.00 | 0.00 | 72 | 1011.0 |
| 20260508101803 | 37 | 0 | 0.0 | 0.0 | 0.00 | 0.00 | 0.00 | 72 | 1011.0 |
| 20260508101603 | 37 | 0 | 0.0 | 0.0 | 0.00 | 0.00 | 0.00 | 72 | 1010.9 |
| 20260508101424 | 37 | 0 | 0.0 | 0.0 | 0.00 | 0.00 | 0.00 | 72 | 1010.9 |
| 20260508101203 | 37 | 0 | 0.0 | 0.0 | 0.00 | 0.00 | 0.00 | 72 | 1010.9 |
| 20260508101003 | 37 | 0 | 0.0 | 0.0 | 0.00 | 0.00 | 0.00 | 72 | 1011.0 |
| 20260508100803 | 37 | 0 | 0.0 | 0.0 | 0.00 | 0.00 | 0.00 | 72 | 1010.9 |
| 20260508100603 | 37 | 0 | 0.0 | 0.0 | 0.00 | 0.00 | 0.00 | 72 | 1010.9 |
| 20260508100403 | 37 | 0 | 0.0 | 0.0 | 0.00 | 0.00 | 0.00 | 72 | 1011.0 |
| 20260508100203 | 37 | 0 | 0.0 | 0.0 | 0.00 | 0.00 | 0.00 | 72 | 1011.0 |
| 20260508100003 | 37 | 0 | 0.0 | 0.0 | 0.00 | 0.00 | 0.00 | 72 | 1011.0 |
| 20260508095803 | 37 | 0 | 0.0 | 0.0 | 0.00 | 0.00 | 0.00 | 72 | 1011.1 |
| 20260508095624 | 37 | 0 | 0.0 | 0.0 | 0.00 | 0.00 | 0.00 | 72 | 1011.1 |
| 20260508095424 | 37 | 0 | 0.0 | 0.0 | 0.00 | 0.00 | 0.00 | 71 | 1011.1 |
| 20260508095203 | 37 | 0 | 0.0 | 0.0 | 0.00 | 0.00 | 0.00 | 71 | 1011.0 |
| 20260508095003 | 37 | 0 | 0.0 | 0.0 | 0.00 | 0.00 | 0.00 | 71 | 1011.1 |
| 20260508094824 | 37 | 0 | 0.0 | 0.0 | 0.00 | 0.00 | 0.00 | 71 | 1011.0 |
| 20260508094603 | 37 | 0 | 0.0 | 0.0 | 0.00 | 0.00 | 0.00 | 71 | 1011.1 |
| 20260508094403 | 37 | 0 | 0.0 | 0.0 | 0.00 | 0.00 | 0.00 | 71 | 1011.1 |
| 20260508094203 | 37 | 0 | 0.0 | 0.0 | 0.00 | 0.00 | 0.00 | 70 | 1011.1 |
| 20260508094003 | 37 | 0 | 0.0 | 0.0 | 0.00 | 0.00 | 0.00 | 70 | 1011.0 |
| 20260508093803 | 37 | 0 | 0.0 | 0.0 | 0.00 | 0.00 | 0.00 | 70 | 1011.0 |
| 20260508093603 | 38 | 0 | 0.0 | 0.0 | 0.00 | 0.00 | 0.00 | 70 | 1011.1 |
| 20260508093403 | 38 | 0 | 0.0 | 0.0 | 0.00 | 0.00 | 0.00 | 70 | 1011.0 |
| 20260508093203 | 38 | 0 | 0.0 | 0.0 | 0.00 | 0.00 | 0.00 | 70 | 1011.1 |
| 20260508093003 | 38 | 0 | 0.0 | 0.0 | 0.00 | 0.00 | 0.00 | 70 | 1011.0 |
| 20260508092803 | 38 | 0 | 0.0 | 0.0 | 0.00 | 0.00 | 0.00 | 70 | 1011.1 |
| 20260508092603 | 38 | 0 | 0.0 | 0.0 | 0.00 | 0.00 | 0.00 | 70 | 1011.1 |
| 20260508092403 | 38 | 0 | 0.0 | 0.0 | 0.00 | 0.00 | 0.00 | 70 | 1011.1 |
| 20260508092203 | 38 | 0 | 0.0 | 0.0 | 0.00 | 0.00 | 0.00 | 70 | 1011.1 |
| 20260508092003 | 38 | 0 | 0.0 | 0.0 | 0.00 | 0.00 | 0.00 | 70 | 1011.1 |
| 20260508091803 | 38 | 0 | 0.0 | 0.0 | 0.00 | 0.00 | 0.00 | 70 | 1011.1 |
| 20260508091603 | 38 | 0 | 0.0 | 0.0 | 0.00 | 0.00 | 0.00 | 70 | 1011.1 |
| 20260508091403 | 38 | 0 | 0.0 | 0.0 | 0.00 | 0.00 | 0.00 | 70 | 1011.2 |
| 20260508091203 | 38 | 0 | 0.0 | 0.0 | 0.00 | 0.00 | 0.00 | 70 | 1011.1 |
| 20260508091003 | 38 | 0 | 0.0 | 0.0 | 0.00 | 0.00 | 0.00 | 70 | 1011.2 |
| 20260508090803 | 38 | 0 | 0.0 | 0.0 | 0.00 | 0.00 | 0.00 | 70 | 1011.1 |
| 20260508090603 | 38 | 0 | 0.0 | 0.0 | 0.00 | 0.00 | 0.00 | 70 | 1011.2 |
| 20260508090403 | 38 | 0 | 0.0 | 0.0 | 0.00 | 0.00 | 0.00 | 70 | 1011.2 |
| 20260508090203 | 39 | 0 | 0.0 | 0.0 | 0.00 | 0.00 | 0.00 | 70 | 1011.2 |
| 20260508090003 | 39 | 0 | 0.0 | 0.0 | 0.00 | 0.00 | 0.00 | 70 | 1011.2 |
| 20260508085803 | 39 | 0 | 0.0 | 0.0 | 0.00 | 0.00 | 0.00 | 70 | 1011.2 |
| 20260508085624 | 39 | 0 | 0.0 | 0.0 | 0.00 | 0.00 | 0.00 | 70 | 1011.2 |
| 20260508085403 | 39 | 0 | 0.0 | 0.0 | 0.00 | 0.00 | 0.00 | 71 | 1011.2 |
| 20260508085224 | 39 | 0 | 0.0 | 0.0 | 0.00 | 0.00 | 0.00 | 71 | 1011.2 |
| 20260508085003 | 39 | 0 | 0.0 | 0.0 | 0.00 | 0.00 | 0.00 | 71 | 1011.2 |
| 20260508084803 | 39 | 0 | 0.0 | 0.0 | 0.00 | 0.00 | 0.00 | 71 | 1011.1 |
| 20260508084603 | 39 | 0 | 0.0 | 0.0 | 0.00 | 0.00 | 0.00 | 71 | 1011.1 |
| 20260508084403 | 39 | 0 | 0.0 | 0.0 | 0.00 | 0.00 | 0.00 | 71 | 1011.1 |
| 20260508084203 | 39 | 0 | 0.0 | 0.0 | 0.00 | 0.00 | 0.00 | 71 | 1011.1 |
| 20260508084003 | 39 | 0 | 0.0 | 0.0 | 0.00 | 0.00 | 0.00 | 71 | 1011.1 |
| 20260508083803 | 39 | 0 | 0.0 | 0.0 | 0.00 | 0.00 | 0.00 | 70 | 1011.1 |
| 20260508083624 | 39 | 0 | 0.0 | 0.0 | 0.00 | 0.00 | 0.00 | 70 | 1011.1 |
| 20260508083403 | 39 | 0 | 0.0 | 0.0 | 0.00 | 0.00 | 0.00 | 70 | 1011.1 |
| 20260508083203 | 39 | 0 | 0.0 | 0.0 | 0.00 | 0.00 | 0.00 | 69 | 1011.1 |
| 20260508083024 | 39 | 0 | 0.0 | 0.0 | 0.00 | 0.00 | 0.00 | 69 | 1011.1 |
| 20260508082803 | 39 | 0 | 0.0 | 0.0 | 0.00 | 0.00 | 0.00 | 70 | 1011.2 |
| 20260508082603 | 39 | 0 | 0.0 | 0.0 | 0.00 | 0.00 | 0.00 | 70 | 1011.1 |
| 20260508082424 | 39 | 0 | 0.0 | 0.0 | 0.00 | 0.00 | 0.00 | 70 | 1011.1 |
| 20260508082203 | 39 | 0 | 0.0 | 0.0 | 0.00 | 0.00 | 0.00 | 70 | 1011.0 |
| 20260508082003 | 39 | 0 | 0.0 | 0.0 | 0.00 | 0.00 | 0.00 | 70 | 1011.0 |
| 20260508081824 | 39 | 0 | 0.0 | 0.0 | 0.00 | 0.00 | 0.00 | 70 | 1011.0 |
| 20260508081403 | 40 | 0 | 0.0 | 0.0 | 0.00 | 0.00 | 0.00 | 70 | 1011.1 |
| 20260508081203 | 40 | 0 | 0.0 | 0.0 | 0.00 | 0.00 | 0.00 | 70 | 1011.1 |
| 20260508081003 | 40 | 0 | 0.0 | 0.0 | 0.00 | 0.00 | 0.00 | 70 | 1011.1 |
| 20260508080803 | 40 | 0 | 0.0 | 0.0 | 0.00 | 0.00 | 0.00 | 70 | 1011.1 |
| 20260508080603 | 40 | 0 | 0.0 | 0.0 | 0.00 | 0.00 | 0.00 | 70 | 1011.1 |
| 20260508080403 | 40 | 0 | 0.0 | 0.0 | 0.00 | 0.00 | 0.00 | 70 | 1011.1 |
| 20260508080203 | 40 | 0 | 0.0 | 0.0 | 0.00 | 0.00 | 0.00 | 70 | 1011.1 |
| 20260508080003 | 40 | 0 | 0.0 | 0.0 | 0.00 | 0.00 | 0.00 | 70 | 1011.1 |
| 20260508075803 | 40 | 0 | 0.0 | 0.0 | 0.00 | 0.00 | 0.00 | 69 | 1011.1 |
| 20260508075603 | 40 | 0 | 0.0 | 0.0 | 0.00 | 0.00 | 0.00 | 69 | 1011.1 |
| 20260508075403 | 40 | 0 | 0.0 | 0.0 | 0.00 | 0.00 | 0.00 | 69 | 1011.2 |
| 20260508075203 | 40 | 0 | 0.0 | 0.0 | 0.00 | 0.00 | 0.00 | 69 | 1011.2 |
| 20260508075003 | 40 | 0 | 0.0 | 0.0 | 0.00 | 0.00 | 0.00 | 70 | 1011.2 |
| 20260508074803 | 40 | 0 | 0.0 | 0.0 | 0.00 | 0.00 | 0.00 | 70 | 1011.3 |
| 20260508074603 | 40 | 0 | 0.0 | 0.0 | 0.00 | 0.00 | 0.00 | 70 | 1011.3 |
| 20260508074403 | 40 | 0 | 0.0 | 0.0 | 0.00 | 0.00 | 0.00 | 70 | 1011.3 |
| 20260508074203 | 40 | 0 | 0.0 | 0.0 | 0.00 | 0.00 | 0.00 | 70 | 1011.3 |
| 20260508074003 | 40 | 0 | 0.0 | 0.0 | 0.00 | 0.00 | 0.00 | 70 | 1011.3 |
| 20260508073824 | 40 | 0 | 0.0 | 0.0 | 0.00 | 0.00 | 0.00 | 70 | 1011.4 |
| 20260508073624 | 40 | 0 | 0.0 | 0.0 | 0.00 | 0.00 | 0.00 | 70 | 1011.3 |
| 20260508073403 | 40 | 0 | 0.0 | 0.0 | 0.00 | 0.00 | 0.00 | 70 | 1011.4 |
| 20260508073203 | 40 | 0 | 0.0 | 0.0 | 0.00 | 0.00 | 0.00 | 70 | 1011.4 |
| 20260508073003 | 41 | 0 | 0.0 | 0.0 | 0.00 | 0.00 | 0.00 | 70 | 1011.4 |
| 20260508072824 | 41 | 0 | 0.0 | 0.0 | 0.00 | 0.00 | 0.00 | 70 | 1011.4 |
| 20260508072603 | 41 | 0 | 0.0 | 0.0 | 0.00 | 0.00 | 0.00 | 70 | 1011.5 |
| 20260508072403 | 41 | 0 | 0.0 | 0.0 | 0.00 | 0.00 | 0.00 | 70 | 1011.5 |
| 20260508072224 | 41 | 0 | 0.0 | 0.0 | 0.00 | 0.00 | 0.00 | 70 | 1011.5 |
| 20260508072024 | 41 | 0 | 0.0 | 0.0 | 0.00 | 0.00 | 0.00 | 70 | 1011.4 |
| 20260508071803 | 41 | 0 | 0.0 | 0.0 | 0.00 | 0.00 | 0.00 | 70 | 1011.4 |
| 20260508071603 | 41 | 0 | 0.0 | 0.0 | 0.00 | 0.00 | 0.00 | 70 | 1011.5 |
| 20260508071403 | 41 | 0 | 0.0 | 0.0 | 0.00 | 0.00 | 0.00 | 70 | 1011.5 |
| 20260508071203 | 41 | 0 | 0.0 | 0.0 | 0.00 | 0.00 | 0.00 | 70 | 1011.5 |
| 20260508071003 | 41 | 0 | 0.0 | 0.0 | 0.00 | 0.00 | 0.00 | 70 | 1011.5 |
| 20260508070824 | 41 | 0 | 0.0 | 0.0 | 0.00 | 0.00 | 0.00 | 70 | 1011.6 |
| 20260508070603 | 41 | 0 | 0.0 | 0.0 | 0.00 | 0.00 | 0.00 | 70 | 1011.6 |
| 20260508070403 | 41 | 0 | 0.0 | 0.0 | 0.00 | 0.00 | 0.00 | 70 | 1011.6 |
| 20260508070203 | 41 | 0 | 0.0 | 0.0 | 0.00 | 0.00 | 0.00 | 70 | 1011.6 |
| 20260508070003 | 41 | 0 | 0.0 | 0.0 | 0.00 | 0.00 | 0.00 | 70 | 1011.6 |
| 20260508065803 | 41 | 0 | 0.0 | 0.0 | 0.00 | 0.00 | 0.00 | 70 | 1011.6 |
| 20260508065603 | 41 | 0 | 0.0 | 0.0 | 0.00 | 0.00 | 0.00 | 70 | 1011.6 |
| 20260508065403 | 41 | 0 | 0.0 | 0.0 | 0.00 | 0.00 | 0.00 | 70 | 1011.7 |
| 20260508065203 | 41 | 0 | 0.0 | 0.0 | 0.00 | 0.00 | 0.00 | 69 | 1011.7 |
| 20260508065003 | 41 | 0 | 0.0 | 0.0 | 0.00 | 0.00 | 0.00 | 69 | 1011.7 |
| 20260508064803 | 41 | 0 | 0.0 | 0.0 | 0.00 | 0.00 | 0.00 | 69 | 1011.7 |
| 20260508064604 | 42 | 0 | 0.0 | 0.0 | 0.00 | 0.00 | 0.00 | 69 | 1011.7 |
| 20260508064404 | 42 | 0 | 0.0 | 0.0 | 0.00 | 0.00 | 0.00 | 69 | 1011.7 |
| 20260508064203 | 42 | 0 | 0.0 | 0.0 | 0.00 | 0.00 | 0.00 | 69 | 1011.7 |
| 20260508064003 | 42 | 0 | 0.0 | 0.0 | 0.00 | 0.00 | 0.00 | 69 | 1011.7 |
| 20260508063803 | 42 | 0 | 0.0 | 0.0 | 0.00 | 0.00 | 0.00 | 69 | 1011.7 |
| 20260508063603 | 42 | 0 | 0.0 | 0.0 | 0.00 | 0.00 | 0.00 | 69 | 1011.8 |
| 20260508063424 | 42 | 0 | 0.0 | 0.0 | 0.00 | 0.00 | 0.00 | 69 | 1011.7 |
| 20260508063203 | 42 | 0 | 0.0 | 0.0 | 0.00 | 0.00 | 0.00 | 68 | 1011.7 |
| 20260508063003 | 42 | 0 | 0.0 | 0.0 | 0.00 | 0.00 | 0.00 | 68 | 1011.7 |
| 20260508062803 | 42 | 0 | 0.0 | 0.0 | 0.00 | 0.00 | 0.00 | 68 | 1011.7 |
| 20260508062603 | 42 | 0 | 0.0 | 0.0 | 0.00 | 0.00 | 0.00 | 68 | 1011.7 |
| 20260508062403 | 42 | 0 | 0.0 | 0.0 | 0.00 | 0.00 | 0.00 | 67 | 1011.7 |
| 20260508062224 | 42 | 0 | 0.0 | 0.0 | 0.00 | 0.00 | 0.00 | 67 | 1011.7 |
| 20260508062003 | 42 | 0 | 0.0 | 0.0 | 0.00 | 0.00 | 0.00 | 67 | 1011.7 |
| 20260508061803 | 42 | 0 | 0.0 | 0.0 | 0.00 | 0.00 | 0.00 | 67 | 1011.6 |
| 20260508061603 | 42 | 0 | 0.0 | 0.0 | 0.00 | 0.00 | 0.00 | 67 | 1011.6 |
| 20260508061403 | 42 | 0 | 0.0 | 0.0 | 0.00 | 0.00 | 0.00 | 66 | 1011.7 |
| 20260508061203 | 42 | 0 | 0.0 | 0.0 | 0.00 | 0.00 | 0.00 | 66 | 1011.7 |
| 20260508061003 | 42 | 0 | 0.0 | 0.0 | 0.00 | 0.00 | 0.00 | 66 | 1011.7 |
| 20260508060803 | 42 | 0 | 0.0 | 0.0 | 0.00 | 0.00 | 0.00 | 66 | 1011.8 |
| 20260508060603 | 42 | 0 | 0.0 | 0.0 | 0.00 | 0.00 | 0.00 | 66 | 1011.7 |
| 20260508060424 | 42 | 0 | 0.0 | 0.0 | 0.00 | 0.00 | 0.00 | 66 | 1011.8 |
| 20260508060224 | 42 | 0 | 0.0 | 0.0 | 0.00 | 0.00 | 0.00 | 66 | 1011.8 |
| 20260508060003 | 42 | 0 | 0.0 | 0.0 | 0.00 | 0.00 | 0.00 | 65 | 1011.8 |
| 20260508055803 | 42 | 0 | 0.0 | 0.0 | 0.00 | 0.00 | 0.00 | 65 | 1011.8 |
| 20260508055603 | 43 | 0 | 0.0 | 0.0 | 0.00 | 0.00 | 0.00 | 65 | 1011.8 |
| 20260508055403 | 43 | 0 | 0.0 | 0.0 | 0.00 | 0.00 | 0.00 | 65 | 1011.7 |
| 20260508055203 | 43 | 0 | 0.0 | 0.0 | 0.00 | 0.00 | 0.00 | 65 | 1011.8 |
| 20260508055003 | 43 | 0 | 0.0 | 0.0 | 0.00 | 0.00 | 0.00 | 65 | 1011.8 |
| 20260508054824 | 43 | 0 | 0.0 | 0.0 | 0.00 | 0.00 | 0.00 | 65 | 1011.8 |
| 20260508054603 | 43 | 0 | 0.0 | 0.0 | 0.00 | 0.00 | 0.00 | 65 | 1011.7 |
| 20260508054403 | 43 | 0 | 0.0 | 0.0 | 0.00 | 0.00 | 0.00 | 65 | 1011.8 |
| 20260508054203 | 43 | 0 | 0.0 | 0.0 | 0.00 | 0.00 | 0.00 | 65 | 1011.7 |
| 20260508054003 | 43 | 0 | 0.0 | 0.0 | 0.00 | 0.00 | 0.00 | 65 | 1011.7 |
| 20260508053803 | 43 | 0 | 0.0 | 0.0 | 0.00 | 0.00 | 0.00 | 65 | 1011.7 |
| 20260508053603 | 43 | 0 | 0.0 | 0.0 | 0.00 | 0.00 | 0.00 | 65 | 1011.7 |
| 20260508053403 | 44 | 0 | 0.0 | 0.0 | 0.00 | 0.00 | 0.00 | 64 | 1011.7 |
| 20260508053203 | 44 | 0 | 0.0 | 0.0 | 0.00 | 0.00 | 0.00 | 65 | 1011.6 |
| 20260508053003 | 44 | 0 | 0.0 | 0.0 | 0.00 | 0.00 | 0.00 | 65 | 1011.6 |
| 20260508052803 | 44 | 0 | 0.0 | 0.0 | 0.00 | 0.00 | 0.00 | 65 | 1011.6 |
| 20260508052603 | 44 | 0 | 0.0 | 0.0 | 0.00 | 0.00 | 0.00 | 65 | 1011.6 |
| 20260508052403 | 44 | 0 | 0.0 | 0.0 | 0.00 | 0.00 | 0.00 | 65 | 1011.6 |
| 20260508052203 | 44 | 0 | 0.0 | 0.0 | 0.00 | 0.00 | 0.00 | 65 | 1011.6 |
| 20260508052003 | 44 | 0 | 0.0 | 0.0 | 0.00 | 0.00 | 0.00 | 65 | 1011.6 |
| 20260508051803 | 44 | 0 | 0.0 | 0.0 | 0.00 | 0.00 | 0.00 | 66 | 1011.6 |
| 20260508051603 | 44 | 0 | 0.0 | 0.0 | 0.00 | 0.00 | 0.00 | 65 | 1011.6 |
| 20260508051403 | 44 | 0 | 0.0 | 0.0 | 0.00 | 0.00 | 0.00 | 65 | 1011.6 |
| 20260508051224 | 44 | 0 | 0.0 | 0.0 | 0.00 | 0.00 | 0.00 | 65 | 1011.5 |
| 20260508051003 | 44 | 0 | 0.0 | 0.0 | 0.00 | 0.00 | 0.00 | 65 | 1011.6 |
| 20260508050803 | 44 | 0 | 0.0 | 0.0 | 0.00 | 0.00 | 0.00 | 65 | 1011.6 |
| 20260508050603 | 44 | 0 | 0.0 | 0.0 | 0.00 | 0.00 | 0.00 | 65 | 1011.6 |
| 20260508050403 | 44 | 0 | 0.0 | 0.0 | 0.00 | 0.00 | 0.00 | 65 | 1011.6 |
| 20260508050203 | 44 | 0 | 0.0 | 0.0 | 0.00 | 0.00 | 0.00 | 65 | 1011.6 |
| 20260508050003 | 44 | 0 | 0.0 | 0.0 | 0.00 | 0.00 | 0.00 | 65 | 1011.5 |
| 20260508045803 | 44 | 0 | 0.0 | 0.0 | 0.00 | 0.00 | 0.00 | 65 | 1011.6 |
| 20260508045603 | 44 | 0 | 0.0 | 0.0 | 0.00 | 0.00 | 0.00 | 65 | 1011.6 |
| 20260508045424 | 44 | 0 | 0.0 | 0.0 | 0.00 | 0.00 | 0.00 | 65 | 1011.5 |
| 20260508045203 | 44 | 0 | 0.0 | 0.0 | 0.00 | 0.00 | 0.00 | 65 | 1011.5 |
| 20260508045003 | 44 | 0 | 0.0 | 0.0 | 0.00 | 0.00 | 0.00 | 65 | 1011.5 |
| 20260508044803 | 44 | 0 | 0.0 | 0.0 | 0.00 | 0.00 | 0.00 | 65 | 1011.6 |
| 20260508044603 | 44 | 0 | 0.0 | 0.0 | 0.00 | 0.00 | 0.00 | 65 | 1011.6 |
| 20260508044403 | 44 | 0 | 0.0 | 0.0 | 0.00 | 0.00 | 0.00 | 65 | 1011.6 |
| 20260508044203 | 44 | 0 | 0.0 | 0.0 | 0.00 | 0.00 | 0.00 | 64 | 1011.5 |
| 20260508044003 | 44 | 0 | 0.0 | 0.0 | 0.00 | 0.00 | 0.00 | 64 | 1011.5 |
| 20260508043803 | 44 | 0 | 0.0 | 0.0 | 0.00 | 0.00 | 0.00 | 65 | 1011.5 |
| 20260508043603 | 44 | 0 | 0.0 | 0.0 | 0.00 | 0.00 | 0.00 | 65 | 1011.5 |
| 20260508043403 | 44 | 0 | 0.0 | 0.0 | 0.00 | 0.00 | 0.00 | 65 | 1011.5 |
| 20260508043203 | 44 | 0 | 0.0 | 0.0 | 0.00 | 0.00 | 0.00 | 65 | 1011.5 |
| 20260508043003 | 44 | 0 | 0.0 | 0.0 | 0.00 | 0.00 | 0.00 | 65 | 1011.5 |
| 20260508042803 | 44 | 0 | 0.0 | 0.0 | 0.00 | 0.00 | 0.00 | 65 | 1011.5 |
| 20260508042603 | 44 | 0 | 0.0 | 0.0 | 0.00 | 0.00 | 0.00 | 65 | 1011.5 |
| 20260508042403 | 44 | 0 | 0.0 | 0.0 | 0.00 | 0.00 | 0.00 | 65 | 1011.5 |
| 20260508042224 | 44 | 0 | 0.0 | 0.0 | 0.00 | 0.00 | 0.00 | 64 | 1011.5 |
| 20260508042003 | 44 | 0 | 0.0 | 0.0 | 0.00 | 0.00 | 0.00 | 64 | 1011.4 |
| 20260508041803 | 44 | 0 | 0.0 | 0.0 | 0.00 | 0.00 | 0.00 | 64 | 1011.5 |
| 20260508041603 | 45 | 0 | 0.0 | 0.0 | 0.00 | 0.00 | 0.00 | 64 | 1011.5 |
| 20260508041403 | 45 | 0 | 0.0 | 0.0 | 0.00 | 0.00 | 0.00 | 64 | 1011.5 |
| 20260508041203 | 45 | 0 | 0.0 | 0.0 | 0.00 | 0.00 | 0.00 | 64 | 1011.5 |
| 20260508041003 | 45 | 0 | 0.0 | 0.0 | 0.00 | 0.00 | 0.00 | 64 | 1011.4 |
| 20260508040803 | 45 | 0 | 0.0 | 0.0 | 0.00 | 0.00 | 0.00 | 64 | 1011.4 |
| 20260508040603 | 45 | 0 | 0.0 | 0.0 | 0.00 | 0.00 | 0.00 | 64 | 1011.4 |
| 20260508040403 | 45 | 0 | 0.0 | 0.0 | 0.00 | 0.00 | 0.00 | 64 | 1011.4 |
| 20260508040203 | 45 | 0 | 0.0 | 0.0 | 0.00 | 0.00 | 0.00 | 64 | 1011.4 |
| 20260508040003 | 45 | 0 | 0.0 | 0.0 | 0.00 | 0.00 | 0.00 | 64 | 1011.5 |
| 20260508035803 | 45 | 0 | 0.0 | 0.0 | 0.00 | 0.00 | 0.00 | 64 | 1011.5 |
| 20260508035624 | 45 | 0 | 0.0 | 0.0 | 0.00 | 0.00 | 0.00 | 64 | 1011.5 |
| 20260508035403 | 45 | 0 | 0.0 | 0.0 | 0.00 | 0.00 | 0.00 | 64 | 1011.4 |
| 20260508035203 | 45 | 0 | 0.0 | 0.0 | 0.00 | 0.00 | 0.00 | 64 | 1011.4 |
| 20260508035003 | 45 | 0 | 0.0 | 0.0 | 0.00 | 0.00 | 0.00 | 64 | 1011.4 |
| 20260508034824 | 45 | 0 | 0.0 | 0.0 | 0.00 | 0.00 | 0.00 | 64 | 1011.4 |
| 20260508034603 | 45 | 0 | 0.0 | 0.0 | 0.00 | 0.00 | 0.00 | 64 | 1011.4 |
| 20260508034403 | 45 | 0 | 0.0 | 0.0 | 0.00 | 0.00 | 0.00 | 64 | 1011.3 |
| 20260508034203 | 45 | 0 | 0.0 | 0.0 | 0.00 | 0.00 | 0.00 | 64 | 1011.3 |
| 20260508034003 | 45 | 0 | 0.0 | 0.0 | 0.00 | 0.00 | 0.00 | 64 | 1011.4 |
| 20260508033803 | 45 | 0 | 0.0 | 0.0 | 0.00 | 0.00 | 0.00 | 64 | 1011.4 |
| 20260508033603 | 45 | 0 | 0.0 | 0.0 | 0.00 | 0.00 | 0.00 | 64 | 1011.4 |
| 20260508033403 | 45 | 0 | 0.0 | 0.0 | 0.00 | 0.00 | 0.00 | 64 | 1011.4 |
| 20260508033203 | 45 | 0 | 0.0 | 0.0 | 0.00 | 0.00 | 0.00 | 63 | 1011.4 |
| 20260508033003 | 45 | 0 | 0.0 | 0.0 | 0.00 | 0.00 | 0.00 | 63 | 1011.4 |
| 20260508032803 | 45 | 0 | 0.0 | 0.0 | 0.00 | 0.00 | 0.00 | 64 | 1011.4 |
| 20260508032603 | 45 | 0 | 0.0 | 0.0 | 0.00 | 0.00 | 0.00 | 64 | 1011.4 |
| 20260508032403 | 45 | 0 | 0.0 | 0.0 | 0.00 | 0.00 | 0.00 | 63 | 1011.4 |
| 20260508032203 | 45 | 0 | 0.0 | 0.0 | 0.00 | 0.00 | 0.00 | 63 | 1011.4 |
| 20260508032024 | 45 | 0 | 0.0 | 0.0 | 0.00 | 0.00 | 0.00 | 63 | 1011.4 |
| 20260508031803 | 46 | 0 | 0.0 | 0.0 | 0.00 | 0.00 | 0.00 | 63 | 1011.4 |
| 20260508031603 | 46 | 0 | 0.0 | 0.0 | 0.00 | 0.00 | 0.00 | 63 | 1011.4 |
| 20260508031403 | 46 | 0 | 0.0 | 0.0 | 0.00 | 0.00 | 0.00 | 63 | 1011.4 |
| 20260508031203 | 46 | 0 | 0.0 | 0.0 | 0.00 | 0.00 | 0.00 | 63 | 1011.4 |
| 20260508031003 | 46 | 0 | 0.0 | 0.0 | 0.00 | 0.00 | 0.00 | 63 | 1011.4 |
| 20260508030803 | 46 | 0 | 0.0 | 0.0 | 0.00 | 0.00 | 0.00 | 63 | 1011.5 |
| 20260508030603 | 46 | 0 | 0.0 | 0.0 | 0.00 | 0.00 | 0.00 | 62 | 1011.5 |
| 20260508030403 | 46 | 0 | 0.0 | 0.0 | 0.00 | 0.00 | 0.00 | 62 | 1011.5 |
| 20260508030203 | 46 | 0 | 0.0 | 0.0 | 0.00 | 0.00 | 0.00 | 62 | 1011.5 |
| 20260508030004 | 46 | 0 | 0.0 | 0.0 | 0.00 | 0.00 | 0.00 | 62 | 1011.5 |
| 20260508025824 | 46 | 0 | 0.0 | 0.0 | 0.00 | 0.00 | 0.00 | 62 | 1011.5 |
| 20260508025603 | 46 | 0 | 0.0 | 0.0 | 0.00 | 0.00 | 0.00 | 62 | 1011.5 |
| 20260508025403 | 46 | 0 | 0.0 | 0.0 | 0.00 | 0.00 | 0.00 | 62 | 1011.5 |
| 20260508025203 | 46 | 0 | 0.0 | 0.0 | 0.00 | 0.00 | 0.00 | 62 | 1011.5 |
| 20260508025003 | 46 | 0 | 0.0 | 0.0 | 0.00 | 0.00 | 0.00 | 62 | 1011.5 |
| 20260508024803 | 46 | 0 | 0.0 | 0.0 | 0.00 | 0.00 | 0.00 | 62 | 1011.5 |
| 20260508024603 | 46 | 0 | 0.0 | 0.0 | 0.00 | 0.00 | 0.00 | 62 | 1011.5 |
| 20260508024403 | 46 | 0 | 0.0 | 0.0 | 0.00 | 0.00 | 0.00 | 62 | 1011.5 |
| 20260508024224 | 47 | 0 | 0.0 | 0.0 | 0.00 | 0.00 | 0.00 | 61 | 1011.5 |
| 20260508024003 | 47 | 0 | 0.0 | 0.0 | 0.00 | 0.00 | 0.00 | 62 | 1011.5 |
| 20260508023824 | 47 | 0 | 0.0 | 0.0 | 0.00 | 0.00 | 0.00 | 62 | 1011.5 |
| 20260508023603 | 47 | 0 | 0.0 | 0.0 | 0.00 | 0.00 | 0.00 | 62 | 1011.5 |
| 20260508023403 | 47 | 0 | 0.0 | 0.0 | 0.00 | 0.00 | 0.00 | 62 | 1011.5 |
| 20260508023224 | 47 | 0 | 0.0 | 0.0 | 0.00 | 0.00 | 0.00 | 62 | 1011.6 |
| 20260508023003 | 47 | 295 | 0.0 | 1.0 | 0.00 | 0.00 | 0.00 | 62 | 1011.5 |
| 20260508022803 | 47 | 294 | 0.0 | 2.0 | 0.00 | 0.00 | 0.00 | 62 | 1011.5 |
| 20260508022603 | 47 | 294 | 1.0 | 2.0 | 0.00 | 0.00 | 0.00 | 61 | 1011.5 |
| 20260508022403 | 47 | 293 | 1.0 | 2.0 | 0.00 | 0.00 | 0.00 | 62 | 1011.5 |
| 20260508022203 | 47 | 293 | 1.0 | 3.0 | 0.00 | 0.00 | 0.00 | 62 | 1011.5 |
| 20260508022003 | 47 | 292 | 1.0 | 3.0 | 0.00 | 0.00 | 0.00 | 62 | 1011.5 |
| 20260508021824 | 47 | 291 | 1.0 | 3.0 | 0.00 | 0.00 | 0.00 | 61 | 1011.5 |
| 20260508021603 | 47 | 290 | 2.0 | 3.0 | 0.00 | 0.00 | 0.00 | 61 | 1011.5 |
| 20260508021403 | 47 | 289 | 2.0 | 3.0 | 0.00 | 0.00 | 0.00 | 61 | 1011.5 |
| 20260508021203 | 47 | 289 | 2.0 | 3.0 | 0.00 | 0.00 | 0.00 | 61 | 1011.5 |
| 20260508021003 | 47 | 290 | 2.0 | 3.0 | 0.00 | 0.00 | 0.00 | 61 | 1011.5 |
| 20260508020824 | 47 | 292 | 2.0 | 4.0 | 0.00 | 0.00 | 0.00 | 61 | 1011.5 |
| 20260508020603 | 47 | 294 | 2.0 | 4.0 | 0.00 | 0.00 | 0.00 | 61 | 1011.5 |
| 20260508020403 | 48 | 296 | 3.0 | 4.0 | 0.00 | 0.00 | 0.00 | 61 | 1011.5 |
| 20260508020203 | 48 | 298 | 3.0 | 4.0 | 0.00 | 0.00 | 0.00 | 61 | 1011.5 |
| 20260508020003 | 48 | 299 | 3.0 | 5.0 | 0.00 | 0.00 | 0.00 | 61 | 1011.5 |
| 20260508015824 | 48 | 300 | 3.0 | 5.0 | 0.00 | 0.00 | 0.00 | 61 | 1011.5 |
| 20260508015603 | 48 | 301 | 4.0 | 7.0 | 0.00 | 0.00 | 0.00 | 61 | 1011.5 |
| 20260508015403 | 48 | 303 | 4.0 | 7.0 | 0.00 | 0.00 | 0.00 | 60 | 1011.5 |
| 20260508015203 | 48 | 303 | 4.0 | 7.0 | 0.00 | 0.00 | 0.00 | 60 | 1011.5 |
| 20260508015003 | 49 | 303 | 4.0 | 7.0 | 0.00 | 0.00 | 0.00 | 60 | 1011.4 |
| 20260508014803 | 49 | 302 | 4.0 | 7.0 | 0.00 | 0.00 | 0.00 | 59 | 1011.4 |
| 20260508014603 | 49 | 302 | 4.0 | 7.0 | 0.00 | 0.00 | 0.00 | 59 | 1011.4 |
| 20260508014403 | 49 | 300 | 5.0 | 9.0 | 0.00 | 0.00 | 0.00 | 59 | 1011.4 |
| 20260508014203 | 49 | 300 | 5.0 | 9.0 | 0.00 | 0.00 | 0.00 | 58 | 1011.4 |
| 20260508014003 | 50 | 299 | 6.0 | 10.0 | 0.00 | 0.00 | 0.00 | 58 | 1011.4 |
| 20260508013803 | 50 | 299 | 6.0 | 11.0 | 0.00 | 0.00 | 0.00 | 57 | 1011.4 |
| 20260508013603 | 50 | 299 | 6.0 | 11.0 | 0.00 | 0.00 | 0.00 | 57 | 1011.4 |
| 20260508013403 | 50 | 299 | 6.0 | 11.0 | 0.00 | 0.00 | 0.00 | 56 | 1011.4 |
| 20260508013203 | 50 | 299 | 5.0 | 11.0 | 0.00 | 0.00 | 0.00 | 56 | 1011.4 |
| 20260508013003 | 50 | 300 | 5.0 | 11.0 | 0.00 | 0.00 | 0.00 | 55 | 1011.3 |
| 20260508012824 | 51 | 301 | 4.0 | 10.0 | 0.00 | 0.00 | 0.00 | 54 | 1011.3 |
| 20260508012603 | 51 | 301 | 4.0 | 6.0 | 0.00 | 0.00 | 0.00 | 53 | 1011.2 |
| 20260508012403 | 51 | 301 | 4.0 | 6.0 | 0.00 | 0.00 | 0.00 | 52 | 1011.1 |
| 20260508012203 | 51 | 300 | 4.0 | 6.0 | 0.00 | 0.00 | 0.00 | 51 | 1011.1 |
| 20260508012025 | 52 | 301 | 4.0 | 6.0 | 0.00 | 0.00 | 0.00 | 50 | 1011.1 |
| 20260508011803 | 52 | 300 | 4.0 | 6.0 | 0.00 | 0.00 | 0.00 | 50 | 1011.0 |
| 20260508011603 | 52 | 299 | 4.0 | 6.0 | 0.00 | 0.00 | 0.00 | 50 | 1011.1 |
| 20260508011403 | 52 | 301 | 4.0 | 6.0 | 0.00 | 0.00 | 0.00 | 50 | 1011.0 |
| 20260508011203 | 52 | 303 | 4.0 | 6.0 | 0.00 | 0.00 | 0.00 | 50 | 1011.1 |
| 20260508011003 | 52 | 305 | 4.0 | 6.0 | 0.00 | 0.00 | 0.00 | 49 | 1011.0 |
| 20260508010803 | 52 | 307 | 4.0 | 6.0 | 0.00 | 0.00 | 0.00 | 49 | 1010.9 |
| 20260508010624 | 52 | 309 | 4.0 | 7.0 | 0.00 | 0.00 | 0.00 | 48 | 1011.0 |
| 20260508010403 | 52 | 310 | 5.0 | 11.0 | 0.00 | 0.00 | 0.00 | 48 | 1011.0 |
| 20260508010224 | 53 | 310 | 5.0 | 11.0 | 0.00 | 0.00 | 0.00 | 47 | 1011.0 |
| 20260508010003 | 53 | 308 | 5.0 | 11.0 | 0.00 | 0.00 | 0.00 | 47 | 1011.0 |
| 20260508005824 | 53 | 310 | 5.0 | 11.0 | 0.00 | 0.00 | 0.00 | 47 | 1011.0 |
| 20260508005603 | 53 | 313 | 5.0 | 11.0 | 0.00 | 0.00 | 0.00 | 47 | 1011.0 |
| 20260508005403 | 53 | 319 | 5.0 | 11.0 | 0.00 | 0.00 | 0.00 | 47 | 1010.9 |
| 20260508005203 | 53 | 322 | 5.0 | 11.0 | 0.00 | 0.00 | 0.00 | 47 | 1010.9 |
| 20260508005024 | 53 | 324 | 4.0 | 10.0 | 0.00 | 0.00 | 0.00 | 47 | 1010.9 |
| 20260508004803 | 53 | 326 | 4.0 | 8.0 | 0.00 | 0.00 | 0.00 | 48 | 1010.9 |
| 20260508004603 | 53 | 321 | 4.0 | 8.0 | 0.00 | 0.00 | 0.00 | 47 | 1010.9 |
| 20260508004403 | 53 | 311 | 4.0 | 7.0 | 0.00 | 0.00 | 0.00 | 47 | 1010.9 |
| 20260508004203 | 53 | 305 | 3.0 | 7.0 | 0.00 | 0.00 | 0.00 | 46 | 1010.9 |
| 20260508004003 | 53 | 304 | 3.0 | 7.0 | 0.00 | 0.00 | 0.00 | 47 | 1010.9 |
| 20260508003803 | 53 | 304 | 3.0 | 7.0 | 0.00 | 0.00 | 0.00 | 46 | 1010.9 |
| 20260508003603 | 54 | 306 | 4.0 | 7.0 | 0.00 | 0.00 | 0.00 | 47 | 1010.9 |
| 20260508003403 | 54 | 307 | 4.0 | 7.0 | 0.00 | 0.00 | 0.00 | 46 | 1010.8 |
| 20260508003224 | 54 | 307 | 4.0 | 7.0 | 0.00 | 0.00 | 0.00 | 46 | 1010.8 |
| 20260508003004 | 54 | 308 | 4.0 | 7.0 | 0.00 | 0.00 | 0.00 | 46 | 1010.8 |
| 20260508002803 | 54 | 308 | 4.0 | 8.0 | 0.00 | 0.00 | 0.00 | 46 | 1010.8 |
| 20260508002603 | 54 | 307 | 4.0 | 8.0 | 0.00 | 0.00 | 0.00 | 46 | 1010.8 |
| 20260508002403 | 54 | 308 | 5.0 | 10.0 | 0.00 | 0.00 | 0.00 | 45 | 1010.8 |
| 20260508002203 | 54 | 310 | 5.0 | 12.0 | 0.00 | 0.00 | 0.00 | 46 | 1010.7 |
| 20260508002003 | 54 | 314 | 6.0 | 12.0 | 0.00 | 0.00 | 0.00 | 45 | 1010.7 |
| 20260508001803 | 54 | 317 | 7.0 | 12.0 | 0.00 | 0.00 | 0.00 | 45 | 1010.7 |
| 20260508001603 | 54 | 321 | 7.0 | 12.0 | 0.00 | 0.00 | 0.00 | 44 | 1010.8 |
| 20260508001403 | 54 | 325 | 7.0 | 12.0 | 0.00 | 0.00 | 0.00 | 43 | 1010.8 |
| 20260508001203 | 54 | 324 | 6.0 | 11.0 | 0.00 | 0.00 | 0.00 | 43 | 1010.8 |
| 20260508001003 | 54 | 323 | 5.0 | 11.0 | 0.00 | 0.00 | 0.00 | 42 | 1010.8 |
| 20260508000803 | 54 | 316 | 5.0 | 11.0 | 0.00 | 0.00 | 0.00 | 41 | 1010.8 |
| 20260508000603 | 55 | 311 | 5.0 | 10.0 | 0.00 | 0.00 | 0.00 | 41 | 1010.7 |
| 20260508000427 | 55 | 307 | 5.0 | 10.0 | 0.00 | 0.00 | 0.00 | 41 | 1010.7 |
| 20260508000226 | 55 | 307 | 5.0 | 10.0 | 0.00 | 0.00 | 0.00 | 41 | 1010.7 |
| 20260508000003 | 55 | 306 | 5.0 | 10.0 | 0.00 | 0.00 | 0.00 | 41 | 1010.8 |
| 20260507235803 | 55 | 307 | 5.0 | 10.0 | 0.00 | 0.00 | 0.00 | 40 | 1010.7 |
| 20260507235603 | 55 | 309 | 5.0 | 10.0 | 0.00 | 0.00 | 0.00 | 41 | 1010.7 |
| 20260507235403 | 55 | 309 | 5.0 | 10.0 | 0.00 | 0.00 | 0.00 | 40 | 1010.7 |
| 20260507235203 | 55 | 311 | 5.0 | 10.0 | 0.00 | 0.00 | 0.00 | 41 | 1010.7 |
| 20260507235003 | 55 | 312 | 5.0 | 12.0 | 0.00 | 0.00 | 0.00 | 41 | 1010.7 |
| 20260507234803 | 55 | 312 | 5.0 | 12.0 | 0.00 | 0.00 | 0.00 | 40 | 1010.7 |
| 20260507234603 | 55 | 314 | 5.0 | 12.0 | 0.00 | 0.00 | 0.00 | 41 | 1010.6 |
| 20260507234403 | 55 | 316 | 5.0 | 12.0 | 0.00 | 0.00 | 0.00 | 40 | 1010.7 |
| 20260507234203 | 55 | 318 | 5.0 | 12.0 | 0.00 | 0.00 | 0.00 | 40 | 1010.7 |